| time (UTC) | temp F | wind direction | speed knots | gust knots | rain 1hr in | rain 24hr in | rain mn in | humidity % | barometer mb |
| 20260504231705 | 59 | 181 | 7.0 | 15.6 | 0.00 | 0.00 | 0.00 | 67 | 1009.6 |
| 20260504231606 | 59 | 182 | 7.0 | 15.6 | 0.00 | 0.00 | 0.00 | 67 | 1009.6 |
| 20260504231505 | 59 | 182 | 6.1 | 15.6 | 0.00 | 0.00 | 0.00 | 67 | 1009.6 |
| 20260504231405 | 59 | 184 | 6.1 | 15.6 | 0.00 | 0.00 | 0.00 | 67 | 1009.6 |
| 20260504231305 | 59 | 185 | 6.1 | 15.6 | 0.00 | 0.00 | 0.00 | 66 | 1009.7 |
| 20260504231205 | 59 | 184 | 7.0 | 15.6 | 0.00 | 0.00 | 0.00 | 66 | 1009.6 |
| 20260504231105 | 59 | 184 | 7.0 | 15.6 | 0.00 | 0.00 | 0.00 | 66 | 1009.6 |
| 20260504231005 | 59 | 185 | 7.0 | 15.6 | 0.00 | 0.00 | 0.00 | 66 | 1009.7 |
| 20260504230905 | 59 | 187 | 7.0 | 15.6 | 0.00 | 0.00 | 0.00 | 65 | 1009.7 |
| 20260504230805 | 60 | 187 | 7.0 | 15.6 | 0.00 | 0.00 | 0.00 | 65 | 1009.6 |
| 20260504230706 | 60 | 188 | 7.0 | 15.6 | 0.00 | 0.00 | 0.00 | 65 | 1009.7 |
| 20260504230605 | 60 | 188 | 7.0 | 15.6 | 0.00 | 0.00 | 0.00 | 65 | 1009.7 |
| 20260504230111 | 59 | 163 | 5.2 | 16.5 | 0.00 | 0.00 | 0.00 | 65 | 1010.0 |
| 20260504230005 | 60 | 189 | 7.0 | 16.5 | 0.00 | 0.00 | 0.00 | 64 | 1009.7 |
| 20260504225905 | 60 | 188 | 7.0 | 16.5 | 0.00 | 0.00 | 0.00 | 64 | 1009.7 |
| 20260504225805 | 60 | 189 | 7.8 | 16.5 | 0.00 | 0.00 | 0.00 | 64 | 1009.6 |
| 20260504225705 | 60 | 190 | 7.8 | 16.5 | 0.00 | 0.00 | 0.00 | 64 | 1009.7 |
| 20260504225605 | 60 | 190 | 7.8 | 16.5 | 0.00 | 0.00 | 0.00 | 64 | 1009.7 |
| 20260504225505 | 60 | 192 | 7.8 | 16.5 | 0.00 | 0.00 | 0.00 | 64 | 1009.6 |
| 20260504225405 | 60 | 191 | 7.8 | 16.5 | 0.00 | 0.00 | 0.00 | 64 | 1009.6 |
| 20260504225305 | 61 | 192 | 7.8 | 16.5 | 0.00 | 0.00 | 0.00 | 63 | 1009.7 |
| 20260504225205 | 61 | 191 | 7.0 | 16.5 | 0.00 | 0.00 | 0.00 | 63 | 1009.7 |
| 20260504225105 | 61 | 190 | 7.8 | 16.5 | 0.00 | 0.00 | 0.00 | 63 | 1009.7 |
| 20260504225006 | 61 | 189 | 7.8 | 16.5 | 0.00 | 0.00 | 0.00 | 63 | 1009.7 |
| 20260504224905 | 61 | 188 | 7.0 | 16.5 | 0.00 | 0.00 | 0.00 | 63 | 1009.7 |
| 20260504224805 | 61 | 188 | 7.0 | 15.6 | 0.00 | 0.00 | 0.00 | 63 | 1009.8 |
| 20260504224705 | 61 | 186 | 6.1 | 15.6 | 0.00 | 0.00 | 0.00 | 63 | 1009.8 |
| 20260504224605 | 61 | 186 | 6.1 | 15.6 | 0.00 | 0.00 | 0.00 | 62 | 1009.8 |
| 20260504224506 | 61 | 188 | 6.1 | 15.6 | 0.00 | 0.00 | 0.00 | 62 | 1009.8 |
| 20260504224405 | 61 | 189 | 6.1 | 13.0 | 0.00 | 0.00 | 0.00 | 62 | 1009.8 |
| 20260504224305 | 61 | 189 | 6.1 | 13.0 | 0.00 | 0.00 | 0.00 | 62 | 1009.8 |
| 20260504224205 | 61 | 189 | 6.1 | 13.0 | 0.00 | 0.00 | 0.00 | 62 | 1009.7 |
| 20260504224105 | 61 | 191 | 6.1 | 13.9 | 0.00 | 0.00 | 0.00 | 62 | 1009.7 |
| 20260504224005 | 62 | 192 | 6.1 | 13.9 | 0.00 | 0.00 | 0.00 | 62 | 1009.8 |
| 20260504223905 | 62 | 195 | 5.2 | 13.9 | 0.00 | 0.00 | 0.00 | 62 | 1009.8 |
| 20260504223305 | 62 | 196 | 6.1 | 13.9 | 0.00 | 0.00 | 0.00 | 62 | 1009.8 |
| 20260504223205 | 62 | 198 | 5.2 | 13.9 | 0.00 | 0.00 | 0.00 | 61 | 1009.8 |
| 20260504223111 | 61 | 193 | 4.3 | 11.3 | 0.00 | 0.00 | 0.00 | 61 | 1010.0 |
| 20260504223105 | 62 | 196 | 6.1 | 11.3 | 0.00 | 0.00 | 0.00 | 61 | 1009.8 |
| 20260504223006 | 62 | 196 | 5.2 | 13.9 | 0.00 | 0.00 | 0.00 | 61 | 1009.8 |
| 20260504222905 | 62 | 195 | 5.2 | 13.9 | 0.00 | 0.00 | 0.00 | 61 | 1009.8 |
| 20260504222805 | 62 | 195 | 5.2 | 13.9 | 0.00 | 0.00 | 0.00 | 61 | 1009.8 |
| 20260504222704 | 62 | 196 | 4.3 | 13.9 | 0.00 | 0.00 | 0.00 | 61 | 1009.8 |
| 20260504222605 | 62 | 197 | 4.3 | 13.9 | 0.00 | 0.00 | 0.00 | 61 | 1009.9 |
| 20260504222505 | 62 | 198 | 4.3 | 13.9 | 0.00 | 0.00 | 0.00 | 60 | 1009.9 |
| 20260504222405 | 62 | 199 | 4.3 | 13.9 | 0.00 | 0.00 | 0.00 | 60 | 1009.9 |
| 20260504222305 | 62 | 200 | 4.3 | 13.9 | 0.00 | 0.00 | 0.00 | 60 | 1009.9 |
| 20260504222206 | 62 | 199 | 5.2 | 13.9 | 0.00 | 0.00 | 0.00 | 60 | 1009.9 |
| 20260504221624 | 62 | 201 | 4.3 | 17.4 | 0.00 | 0.00 | 0.00 | 60 | 1010.1 |
| 20260504221605 | 62 | 196 | 6.1 | 16.5 | 0.00 | 0.00 | 0.00 | 60 | 1010.0 |
| 20260504221505 | 62 | 194 | 7.0 | 16.5 | 0.00 | 0.00 | 0.00 | 59 | 1009.9 |
| 20260504221406 | 63 | 192 | 7.0 | 16.5 | 0.00 | 0.00 | 0.00 | 59 | 1010.0 |
| 20260504221305 | 63 | 193 | 6.1 | 16.5 | 0.00 | 0.00 | 0.00 | 59 | 1010.0 |
| 20260504221205 | 63 | 193 | 7.0 | 16.5 | 0.00 | 0.00 | 0.00 | 59 | 1009.9 |
| 20260504221104 | 63 | 191 | 7.0 | 15.6 | 0.00 | 0.00 | 0.00 | 59 | 1010.0 |
| 20260504221005 | 63 | 192 | 7.0 | 15.6 | 0.00 | 0.00 | 0.00 | 58 | 1010.0 |
| 20260504220905 | 63 | 192 | 6.1 | 15.6 | 0.00 | 0.00 | 0.00 | 58 | 1010.1 |
| 20260504220805 | 63 | 190 | 6.1 | 15.6 | 0.00 | 0.00 | 0.00 | 58 | 1010.0 |
| 20260504220705 | 63 | 192 | 6.1 | 15.6 | 0.00 | 0.00 | 0.00 | 58 | 1010.0 |
| 20260504220606 | 63 | 191 | 6.1 | 15.6 | 0.00 | 0.00 | 0.00 | 58 | 1010.0 |
| 20260504220505 | 63 | 194 | 6.1 | 13.9 | 0.00 | 0.00 | 0.00 | 58 | 1010.0 |
| 20260504220405 | 63 | 195 | 6.1 | 16.5 | 0.00 | 0.00 | 0.00 | 58 | 1010.0 |
| 20260504220306 | 63 | 193 | 6.1 | 16.5 | 0.00 | 0.00 | 0.00 | 58 | 1010.0 |
| 20260504220205 | 63 | 192 | 6.1 | 16.5 | 0.00 | 0.00 | 0.00 | 58 | 1010.1 |
| 20260504220110 | 63 | 189 | 5.2 | 16.5 | 0.00 | 0.00 | 0.00 | 57 | 1010.3 |
| 20260504220105 | 63 | 191 | 6.1 | 16.5 | 0.00 | 0.00 | 0.00 | 57 | 1010.1 |
| 20260504220006 | 63 | 190 | 5.2 | 16.5 | 0.00 | 0.00 | 0.00 | 57 | 1010.1 |
| 20260504215905 | 63 | 190 | 6.1 | 16.5 | 0.00 | 0.00 | 0.00 | 57 | 1010.1 |
| 20260504215805 | 63 | 190 | 6.1 | 16.5 | 0.00 | 0.00 | 0.00 | 57 | 1010.1 |
| 20260504215705 | 63 | 192 | 6.1 | 16.5 | 0.00 | 0.00 | 0.00 | 57 | 1010.1 |
| 20260504215605 | 64 | 192 | 6.1 | 16.5 | 0.00 | 0.00 | 0.00 | 57 | 1010.1 |
| 20260504215505 | 64 | 192 | 6.1 | 16.5 | 0.00 | 0.00 | 0.00 | 56 | 1010.2 |
| 20260504215405 | 64 | 192 | 6.1 | 13.9 | 0.00 | 0.00 | 0.00 | 56 | 1010.1 |
| 20260504215305 | 64 | 193 | 6.1 | 13.9 | 0.00 | 0.00 | 0.00 | 56 | 1010.1 |
| 20260504215205 | 64 | 191 | 6.1 | 13.9 | 0.00 | 0.00 | 0.00 | 56 | 1010.1 |
| 20260504215105 | 64 | 192 | 6.1 | 15.6 | 0.00 | 0.00 | 0.00 | 55 | 1010.1 |
| 20260504215005 | 64 | 192 | 6.1 | 15.6 | 0.00 | 0.00 | 0.00 | 55 | 1010.1 |
| 20260504214906 | 64 | 191 | 6.1 | 15.6 | 0.00 | 0.00 | 0.00 | 54 | 1010.1 |
| 20260504214805 | 64 | 191 | 6.1 | 16.5 | 0.00 | 0.00 | 0.00 | 55 | 1010.1 |
| 20260504214705 | 64 | 190 | 6.1 | 16.5 | 0.00 | 0.00 | 0.00 | 55 | 1010.1 |
| 20260504214621 | 63 | 178 | 6.1 | 16.5 | 0.00 | 0.00 | 0.00 | 54 | 1010.4 |
| 20260504214605 | 64 | 192 | 6.1 | 16.5 | 0.00 | 0.00 | 0.00 | 55 | 1010.1 |
| 20260504214505 | 64 | 190 | 6.1 | 16.5 | 0.00 | 0.00 | 0.00 | 55 | 1010.2 |
| 20260504214405 | 64 | 191 | 6.1 | 16.5 | 0.00 | 0.00 | 0.00 | 55 | 1010.1 |
| 20260504213805 | 65 | 200 | 5.2 | 15.6 | 0.00 | 0.00 | 0.00 | 55 | 1010.1 |
| 20260504213705 | 65 | 198 | 5.2 | 15.6 | 0.00 | 0.00 | 0.00 | 55 | 1010.2 |
| 20260504213605 | 65 | 197 | 5.2 | 15.6 | 0.00 | 0.00 | 0.00 | 55 | 1010.1 |
| 20260504213505 | 65 | 200 | 5.2 | 15.6 | 0.00 | 0.00 | 0.00 | 55 | 1010.1 |
| 20260504213405 | 65 | 200 | 4.3 | 15.6 | 0.00 | 0.00 | 0.00 | 55 | 1010.2 |
| 20260504213305 | 65 | 200 | 4.3 | 15.6 | 0.00 | 0.00 | 0.00 | 55 | 1010.1 |
| 20260504213205 | 65 | 202 | 4.3 | 15.6 | 0.00 | 0.00 | 0.00 | 55 | 1010.0 |
| 20260504213108 | 64 | 219 | 2.6 | 12.2 | 0.00 | 0.00 | 0.00 | 55 | 1010.3 |
| 20260504213105 | 65 | 203 | 4.3 | 11.3 | 0.00 | 0.00 | 0.00 | 55 | 1010.1 |
| 20260504213005 | 65 | 198 | 4.3 | 11.3 | 0.00 | 0.00 | 0.00 | 55 | 1010.2 |
| 20260504212906 | 65 | 197 | 4.3 | 12.2 | 0.00 | 0.00 | 0.00 | 55 | 1010.1 |
| 20260504212805 | 65 | 196 | 4.3 | 12.2 | 0.00 | 0.00 | 0.00 | 55 | 1010.1 |
| 20260504212705 | 65 | 196 | 4.3 | 12.2 | 0.00 | 0.00 | 0.00 | 55 | 1010.1 |
| 20260504212605 | 65 | 194 | 4.3 | 12.2 | 0.00 | 0.00 | 0.00 | 55 | 1010.1 |
| 20260504212505 | 65 | 193 | 4.3 | 12.2 | 0.00 | 0.00 | 0.00 | 55 | 1010.1 |
| 20260504212405 | 65 | 190 | 4.3 | 12.2 | 0.00 | 0.00 | 0.00 | 55 | 1010.1 |
| 20260504212305 | 65 | 190 | 4.3 | 12.2 | 0.00 | 0.00 | 0.00 | 55 | 1010.0 |
| 20260504212205 | 65 | 188 | 4.3 | 12.2 | 0.00 | 0.00 | 0.00 | 55 | 1010.1 |
| 20260504212105 | 65 | 186 | 4.3 | 12.2 | 0.00 | 0.00 | 0.00 | 55 | 1010.1 |
| 20260504212005 | 65 | 186 | 4.3 | 13.0 | 0.00 | 0.00 | 0.00 | 55 | 1010.1 |
| 20260504211905 | 65 | 187 | 4.3 | 13.9 | 0.00 | 0.00 | 0.00 | 55 | 1010.1 |
| 20260504211805 | 65 | 189 | 4.3 | 13.9 | 0.00 | 0.00 | 0.00 | 55 | 1010.1 |
| 20260504211705 | 65 | 188 | 4.3 | 13.9 | 0.00 | 0.00 | 0.00 | 55 | 1010.1 |
| 20260504211618 | 64 | 171 | 4.3 | 13.9 | 0.00 | 0.00 | 0.00 | 54 | 1010.3 |
| 20260504211605 | 65 | 189 | 5.2 | 13.9 | 0.00 | 0.00 | 0.00 | 55 | 1010.1 |
| 20260504211504 | 65 | 194 | 5.2 | 13.9 | 0.00 | 0.00 | 0.00 | 55 | 1010.0 |
| 20260504211405 | 65 | 198 | 5.2 | 13.9 | 0.00 | 0.00 | 0.00 | 55 | 1010.1 |
| 20260504211305 | 65 | 196 | 6.1 | 13.9 | 0.00 | 0.00 | 0.00 | 55 | 1010.1 |
| 20260504211205 | 65 | 197 | 5.2 | 13.9 | 0.00 | 0.00 | 0.00 | 55 | 1010.1 |
| 20260504211105 | 65 | 198 | 5.2 | 13.9 | 0.00 | 0.00 | 0.00 | 55 | 1010.1 |
| 20260504211006 | 65 | 202 | 5.2 | 13.9 | 0.00 | 0.00 | 0.00 | 54 | 1010.1 |
| 20260504210905 | 65 | 204 | 5.2 | 13.9 | 0.00 | 0.00 | 0.00 | 54 | 1010.1 |
| 20260504210805 | 65 | 205 | 6.1 | 13.9 | 0.00 | 0.00 | 0.00 | 54 | 1010.1 |
| 20260504210706 | 65 | 205 | 6.1 | 13.9 | 0.00 | 0.00 | 0.00 | 54 | 1010.1 |
| 20260504210605 | 65 | 206 | 6.1 | 15.6 | 0.00 | 0.00 | 0.00 | 54 | 1010.1 |
| 20260504210505 | 65 | 202 | 6.1 | 15.6 | 0.00 | 0.00 | 0.00 | 54 | 1010.1 |
| 20260504210405 | 65 | 200 | 6.1 | 15.6 | 0.00 | 0.00 | 0.00 | 54 | 1010.1 |
| 20260504210305 | 65 | 204 | 6.1 | 15.6 | 0.00 | 0.00 | 0.00 | 54 | 1010.1 |
| 20260504210205 | 65 | 204 | 6.1 | 15.6 | 0.00 | 0.00 | 0.00 | 53 | 1010.1 |
| 20260504210107 | 65 | 219 | 4.3 | 15.6 | 0.00 | 0.00 | 0.00 | 53 | 1010.3 |
| 20260504210005 | 65 | 203 | 7.0 | 15.6 | 0.00 | 0.00 | 0.00 | 53 | 1010.1 |
| 20260504205905 | 65 | 202 | 7.0 | 15.6 | 0.00 | 0.00 | 0.00 | 53 | 1010.2 |
| 20260504205805 | 65 | 201 | 7.0 | 15.6 | 0.00 | 0.00 | 0.00 | 52 | 1010.1 |
| 20260504205705 | 65 | 202 | 7.0 | 15.6 | 0.00 | 0.00 | 0.00 | 52 | 1010.1 |
| 20260504205605 | 65 | 203 | 7.0 | 14.8 | 0.00 | 0.00 | 0.00 | 52 | 1010.2 |
| 20260504205505 | 65 | 203 | 7.0 | 14.8 | 0.00 | 0.00 | 0.00 | 53 | 1010.1 |
| 20260504205405 | 65 | 203 | 6.1 | 14.8 | 0.00 | 0.00 | 0.00 | 52 | 1010.1 |
| 20260504205305 | 66 | 201 | 6.1 | 14.8 | 0.00 | 0.00 | 0.00 | 52 | 1010.1 |
| 20260504205205 | 66 | 200 | 7.0 | 14.8 | 0.00 | 0.00 | 0.00 | 52 | 1010.1 |
| 20260504205105 | 66 | 200 | 6.1 | 14.8 | 0.00 | 0.00 | 0.00 | 52 | 1010.1 |
| 20260504205005 | 66 | 200 | 7.0 | 14.8 | 0.00 | 0.00 | 0.00 | 52 | 1010.0 |
| 20260504204905 | 66 | 201 | 7.0 | 14.8 | 0.00 | 0.00 | 0.00 | 53 | 1010.1 |
| 20260504204805 | 66 | 202 | 7.0 | 14.8 | 0.00 | 0.00 | 0.00 | 52 | 1010.0 |
| 20260504204705 | 66 | 198 | 7.0 | 14.8 | 0.00 | 0.00 | 0.00 | 51 | 1010.0 |
| 20260504204632 | 65 | 141 | 7.0 | 14.8 | 0.00 | 0.00 | 0.00 | 51 | 1010.4 |
| 20260504204605 | 66 | 195 | 7.0 | 14.8 | 0.00 | 0.00 | 0.00 | 51 | 1010.0 |
| 20260504204505 | 66 | 195 | 6.1 | 14.8 | 0.00 | 0.00 | 0.00 | 52 | 1010.0 |
| 20260504204405 | 66 | 196 | 6.1 | 12.2 | 0.00 | 0.00 | 0.00 | 52 | 1010.0 |
| 20260504204306 | 66 | 195 | 6.1 | 12.2 | 0.00 | 0.00 | 0.00 | 52 | 1010.1 |
| 20260504204205 | 66 | 195 | 6.1 | 12.2 | 0.00 | 0.00 | 0.00 | 52 | 1010.0 |
| 20260504204105 | 66 | 196 | 6.1 | 11.3 | 0.00 | 0.00 | 0.00 | 52 | 1010.0 |
| 20260504204005 | 66 | 196 | 5.2 | 11.3 | 0.00 | 0.00 | 0.00 | 52 | 1010.0 |
| 20260504203905 | 66 | 197 | 6.1 | 11.3 | 0.00 | 0.00 | 0.00 | 52 | 1010.0 |
| 20260504203805 | 66 | 201 | 6.1 | 13.9 | 0.00 | 0.00 | 0.00 | 53 | 1010.0 |
| 20260504203705 | 66 | 206 | 5.2 | 13.9 | 0.00 | 0.00 | 0.00 | 53 | 1010.0 |
| 20260504203605 | 66 | 213 | 5.2 | 13.9 | 0.00 | 0.00 | 0.00 | 53 | 1010.0 |
| 20260504203505 | 66 | 213 | 5.2 | 13.9 | 0.00 | 0.00 | 0.00 | 53 | 1010.0 |
| 20260504203405 | 66 | 216 | 5.2 | 13.9 | 0.00 | 0.00 | 0.00 | 53 | 1010.0 |
| 20260504203305 | 66 | 218 | 6.1 | 13.9 | 0.00 | 0.00 | 0.00 | 52 | 1010.0 |
| 20260504203205 | 66 | 221 | 5.2 | 15.6 | 0.00 | 0.00 | 0.00 | 52 | 1010.0 |
| 20260504203137 | 66 | 224 | 4.3 | 14.8 | 0.00 | 0.00 | 0.00 | 52 | 1010.3 |
| 20260504203105 | 66 | 224 | 6.1 | 15.6 | 0.00 | 0.00 | 0.00 | 52 | 1009.9 |
| 20260504203005 | 66 | 224 | 6.1 | 15.6 | 0.00 | 0.00 | 0.00 | 51 | 1010.0 |
| 20260504202905 | 66 | 225 | 5.2 | 15.6 | 0.00 | 0.00 | 0.00 | 51 | 1009.9 |
| 20260504202805 | 66 | 224 | 5.2 | 15.6 | 0.00 | 0.00 | 0.00 | 51 | 1010.0 |
| 20260504202705 | 66 | 223 | 6.1 | 15.6 | 0.00 | 0.00 | 0.00 | 51 | 1009.9 |
| 20260504202605 | 66 | 223 | 6.1 | 15.6 | 0.00 | 0.00 | 0.00 | 51 | 1009.9 |
| 20260504202505 | 66 | 222 | 6.1 | 15.6 | 0.00 | 0.00 | 0.00 | 51 | 1010.0 |
| 20260504202405 | 66 | 220 | 5.2 | 15.6 | 0.00 | 0.00 | 0.00 | 51 | 1009.9 |
| 20260504202305 | 66 | 221 | 6.1 | 15.6 | 0.00 | 0.00 | 0.00 | 50 | 1009.8 |
| 20260504202205 | 66 | 216 | 6.1 | 15.6 | 0.00 | 0.00 | 0.00 | 51 | 1009.9 |
| 20260504202105 | 66 | 217 | 6.1 | 16.5 | 0.00 | 0.00 | 0.00 | 50 | 1009.9 |
| 20260504202005 | 66 | 218 | 6.1 | 16.5 | 0.00 | 0.00 | 0.00 | 50 | 1009.9 |
| 20260504201905 | 66 | 217 | 6.1 | 16.5 | 0.00 | 0.00 | 0.00 | 50 | 1009.9 |
| 20260504201805 | 66 | 212 | 6.1 | 16.5 | 0.00 | 0.00 | 0.00 | 50 | 1009.9 |
| 20260504201705 | 66 | 214 | 6.1 | 16.5 | 0.00 | 0.00 | 0.00 | 51 | 1009.9 |
| 20260504201613 | 66 | 134 | 3.5 | 15.6 | 0.00 | 0.00 | 0.00 | 50 | 1010.2 |
| 20260504201605 | 66 | 212 | 6.1 | 16.5 | 0.00 | 0.00 | 0.00 | 50 | 1010.0 |
| 20260504201505 | 66 | 214 | 6.1 | 16.5 | 0.00 | 0.00 | 0.00 | 49 | 1010.0 |
| 20260504201405 | 67 | 213 | 6.1 | 16.5 | 0.00 | 0.00 | 0.00 | 49 | 1009.9 |
| 20260504201305 | 67 | 212 | 6.1 | 16.5 | 0.00 | 0.00 | 0.00 | 49 | 1009.9 |
| 20260504201205 | 67 | 212 | 6.1 | 16.5 | 0.00 | 0.00 | 0.00 | 50 | 1010.0 |
| 20260504201105 | 67 | 211 | 6.1 | 15.6 | 0.00 | 0.00 | 0.00 | 50 | 1010.1 |
| 20260504201005 | 67 | 209 | 6.1 | 13.0 | 0.00 | 0.00 | 0.00 | 50 | 1010.0 |
| 20260504200905 | 67 | 211 | 6.1 | 13.0 | 0.00 | 0.00 | 0.00 | 50 | 1010.0 |
| 20260504200805 | 67 | 218 | 6.1 | 13.9 | 0.00 | 0.00 | 0.00 | 50 | 1010.1 |
| 20260504200705 | 67 | 214 | 6.1 | 13.9 | 0.00 | 0.00 | 0.00 | 50 | 1010.1 |
| 20260504200605 | 67 | 213 | 6.1 | 13.9 | 0.00 | 0.00 | 0.00 | 50 | 1010.1 |
| 20260504200505 | 67 | 215 | 6.1 | 13.9 | 0.00 | 0.00 | 0.00 | 50 | 1010.1 |
| 20260504200405 | 67 | 216 | 7.0 | 15.6 | 0.00 | 0.00 | 0.00 | 50 | 1010.1 |
| 20260504200305 | 67 | 216 | 7.0 | 15.6 | 0.00 | 0.00 | 0.00 | 50 | 1010.1 |
| 20260504200205 | 67 | 216 | 7.0 | 16.5 | 0.00 | 0.00 | 0.00 | 50 | 1010.2 |
| 20260504200120 | 66 | 255 | 4.3 | 15.6 | 0.00 | 0.00 | 0.00 | 50 | 1010.4 |
| 20260504200105 | 67 | 215 | 7.0 | 16.5 | 0.00 | 0.00 | 0.00 | 50 | 1010.2 |
| 20260504200005 | 67 | 214 | 7.8 | 16.5 | 0.00 | 0.00 | 0.00 | 49 | 1010.2 |
| 20260504195905 | 67 | 217 | 7.8 | 19.1 | 0.00 | 0.00 | 0.00 | 49 | 1010.2 |
| 20260504195805 | 67 | 214 | 7.8 | 19.1 | 0.00 | 0.00 | 0.00 | 49 | 1010.2 |
| 20260504195705 | 67 | 218 | 7.8 | 19.1 | 0.00 | 0.00 | 0.00 | 48 | 1010.2 |
| 20260504195605 | 67 | 220 | 8.7 | 19.1 | 0.00 | 0.00 | 0.00 | 48 | 1010.3 |
| 20260504195505 | 67 | 220 | 7.8 | 19.1 | 0.00 | 0.00 | 0.00 | 47 | 1010.3 |
| 20260504195406 | 67 | 220 | 8.7 | 19.1 | 0.00 | 0.00 | 0.00 | 47 | 1010.2 |
| 20260504195305 | 67 | 220 | 7.8 | 23.5 | 0.00 | 0.00 | 0.00 | 47 | 1010.3 |
| 20260504195205 | 67 | 221 | 8.7 | 23.5 | 0.00 | 0.00 | 0.00 | 47 | 1010.2 |
| 20260504195105 | 67 | 219 | 8.7 | 23.5 | 0.00 | 0.00 | 0.00 | 47 | 1010.3 |
| 20260504195005 | 67 | 219 | 7.8 | 23.5 | 0.00 | 0.00 | 0.00 | 48 | 1010.4 |
| 20260504194905 | 67 | 217 | 7.8 | 23.5 | 0.00 | 0.00 | 0.00 | 47 | 1010.3 |
| 20260504194805 | 67 | 215 | 7.8 | 23.5 | 0.00 | 0.00 | 0.00 | 47 | 1010.3 |
| 20260504194705 | 67 | 213 | 7.8 | 23.5 | 0.00 | 0.00 | 0.00 | 47 | 1010.2 |
| 20260504194610 | 66 | 236 | 7.8 | 25.2 | 0.00 | 0.00 | 0.00 | 47 | 1010.5 |
| 20260504194605 | 67 | 208 | 7.8 | 23.5 | 0.00 | 0.00 | 0.00 | 47 | 1010.2 |
| 20260504194505 | 67 | 206 | 7.8 | 23.5 | 0.00 | 0.00 | 0.00 | 47 | 1010.3 |
| 20260504194405 | 67 | 206 | 7.0 | 23.5 | 0.00 | 0.00 | 0.00 | 47 | 1010.2 |
| 20260504194305 | 67 | 206 | 7.0 | 18.2 | 0.00 | 0.00 | 0.00 | 48 | 1010.3 |
| 20260504194205 | 67 | 207 | 7.0 | 18.2 | 0.00 | 0.00 | 0.00 | 48 | 1010.1 |
| 20260504194105 | 67 | 209 | 7.8 | 18.2 | 0.00 | 0.00 | 0.00 | 48 | 1010.1 |
| 20260504194005 | 67 | 208 | 7.8 | 18.2 | 0.00 | 0.00 | 0.00 | 47 | 1010.2 |
| 20260504193905 | 67 | 206 | 7.8 | 18.2 | 0.00 | 0.00 | 0.00 | 47 | 1010.2 |
| 20260504193805 | 67 | 207 | 7.8 | 18.2 | 0.00 | 0.00 | 0.00 | 47 | 1010.2 |
| 20260504193705 | 67 | 207 | 7.8 | 18.2 | 0.00 | 0.00 | 0.00 | 47 | 1010.3 |
| 20260504193605 | 67 | 207 | 7.0 | 18.2 | 0.00 | 0.00 | 0.00 | 46 | 1010.3 |
| 20260504193505 | 67 | 207 | 7.8 | 16.5 | 0.00 | 0.00 | 0.00 | 46 | 1010.2 |
| 20260504193405 | 67 | 205 | 7.8 | 16.5 | 0.00 | 0.00 | 0.00 | 47 | 1010.2 |
| 20260504193305 | 67 | 202 | 7.8 | 16.5 | 0.00 | 0.00 | 0.00 | 47 | 1010.2 |
| 20260504193205 | 67 | 202 | 7.0 | 16.5 | 0.00 | 0.00 | 0.00 | 47 | 1010.3 |
| 20260504193118 | 67 | 234 | 7.8 | 14.8 | 0.00 | 0.00 | 0.00 | 47 | 1010.5 |
| 20260504193105 | 67 | 202 | 7.0 | 15.6 | 0.00 | 0.00 | 0.00 | 47 | 1010.3 |
| 20260504193005 | 67 | 206 | 7.8 | 18.2 | 0.00 | 0.00 | 0.00 | 47 | 1010.3 |
| 20260504192905 | 67 | 207 | 7.8 | 18.2 | 0.00 | 0.00 | 0.00 | 46 | 1010.3 |
| 20260504192805 | 67 | 208 | 7.8 | 18.2 | 0.00 | 0.00 | 0.00 | 47 | 1010.2 |
| 20260504192705 | 67 | 208 | 7.8 | 18.2 | 0.00 | 0.00 | 0.00 | 47 | 1010.2 |
| 20260504192605 | 67 | 209 | 7.8 | 18.2 | 0.00 | 0.00 | 0.00 | 45 | 1010.2 |
| 20260504192505 | 67 | 209 | 7.8 | 18.2 | 0.00 | 0.00 | 0.00 | 45 | 1010.3 |
| 20260504192405 | 67 | 209 | 7.8 | 18.2 | 0.00 | 0.00 | 0.00 | 45 | 1010.3 |
| 20260504192305 | 67 | 211 | 7.8 | 18.2 | 0.00 | 0.00 | 0.00 | 45 | 1010.2 |
| 20260504192205 | 67 | 211 | 8.7 | 18.2 | 0.00 | 0.00 | 0.00 | 45 | 1010.3 |
| 20260504192105 | 68 | 211 | 7.8 | 18.2 | 0.00 | 0.00 | 0.00 | 46 | 1010.3 |
| 20260504192005 | 68 | 206 | 7.8 | 17.4 | 0.00 | 0.00 | 0.00 | 45 | 1010.3 |
| 20260504191905 | 68 | 205 | 7.0 | 17.4 | 0.00 | 0.00 | 0.00 | 45 | 1010.3 |
| 20260504191806 | 68 | 205 | 7.0 | 17.4 | 0.00 | 0.00 | 0.00 | 46 | 1010.4 |
| 20260504191705 | 68 | 207 | 6.1 | 20.9 | 0.00 | 0.00 | 0.00 | 46 | 1010.3 |
| 20260504191610 | 67 | 205 | 7.0 | 19.1 | 0.00 | 0.00 | 0.00 | 46 | 1010.6 |
| 20260504191605 | 68 | 208 | 6.1 | 20.9 | 0.00 | 0.00 | 0.00 | 46 | 1010.2 |
| 20260504191505 | 68 | 205 | 6.1 | 20.9 | 0.00 | 0.00 | 0.00 | 46 | 1010.4 |
| 20260504191405 | 68 | 207 | 6.1 | 20.9 | 0.00 | 0.00 | 0.00 | 45 | 1010.3 |
| 20260504191305 | 68 | 208 | 6.1 | 20.9 | 0.00 | 0.00 | 0.00 | 46 | 1010.3 |
| 20260504191205 | 68 | 210 | 6.1 | 20.9 | 0.00 | 0.00 | 0.00 | 45 | 1010.4 |
| 20260504191105 | 68 | 208 | 6.1 | 20.9 | 0.00 | 0.00 | 0.00 | 46 | 1010.4 |
| 20260504191005 | 68 | 208 | 7.0 | 20.9 | 0.00 | 0.00 | 0.00 | 46 | 1010.4 |
| 20260504190905 | 68 | 209 | 7.0 | 20.9 | 0.00 | 0.00 | 0.00 | 46 | 1010.4 |
| 20260504190805 | 68 | 208 | 7.0 | 20.9 | 0.00 | 0.00 | 0.00 | 46 | 1010.4 |
| 20260504190705 | 68 | 206 | 7.8 | 24.3 | 0.00 | 0.00 | 0.00 | 45 | 1010.3 |
| 20260504190604 | 68 | 208 | 7.8 | 24.3 | 0.00 | 0.00 | 0.00 | 44 | 1010.3 |
| 20260504190505 | 68 | 209 | 7.8 | 24.3 | 0.00 | 0.00 | 0.00 | 45 | 1010.4 |
| 20260504190405 | 68 | 207 | 8.7 | 24.3 | 0.00 | 0.00 | 0.00 | 45 | 1010.4 |
| 20260504190305 | 68 | 204 | 7.8 | 24.3 | 0.00 | 0.00 | 0.00 | 46 | 1010.3 |
| 20260504190205 | 68 | 201 | 8.7 | 24.3 | 0.00 | 0.00 | 0.00 | 46 | 1010.4 |
| 20260504190116 | 67 | 94 | 7.0 | 23.5 | 0.00 | 0.00 | 0.00 | 46 | 1010.6 |
| 20260504190105 | 68 | 204 | 8.7 | 24.3 | 0.00 | 0.00 | 0.00 | 46 | 1010.4 |
| 20260504190005 | 68 | 205 | 8.7 | 24.3 | 0.00 | 0.00 | 0.00 | 45 | 1010.5 |
| 20260504185905 | 68 | 207 | 7.8 | 24.3 | 0.00 | 0.00 | 0.00 | 46 | 1010.5 |
| 20260504185805 | 68 | 207 | 7.8 | 24.3 | 0.00 | 0.00 | 0.00 | 44 | 1010.5 |
| 20260504185705 | 68 | 211 | 7.8 | 18.2 | 0.00 | 0.00 | 0.00 | 45 | 1010.5 |
| 20260504185605 | 68 | 211 | 7.8 | 18.2 | 0.00 | 0.00 | 0.00 | 47 | 1010.6 |
| 20260504185505 | 68 | 214 | 7.0 | 18.2 | 0.00 | 0.00 | 0.00 | 47 | 1010.5 |
| 20260504185405 | 68 | 215 | 7.0 | 18.2 | 0.00 | 0.00 | 0.00 | 46 | 1010.5 |
| 20260504185305 | 68 | 216 | 7.0 | 16.5 | 0.00 | 0.00 | 0.00 | 47 | 1010.6 |
| 20260504185204 | 68 | 216 | 7.0 | 16.5 | 0.00 | 0.00 | 0.00 | 46 | 1010.7 |
| 20260504185105 | 68 | 215 | 6.1 | 16.5 | 0.00 | 0.00 | 0.00 | 48 | 1010.5 |
| 20260504185005 | 68 | 215 | 6.1 | 14.8 | 0.00 | 0.00 | 0.00 | 47 | 1010.6 |
| 20260504184905 | 68 | 207 | 6.1 | 14.8 | 0.00 | 0.00 | 0.00 | 47 | 1010.6 |
| 20260504184805 | 68 | 206 | 6.1 | 14.8 | 0.00 | 0.00 | 0.00 | 47 | 1010.5 |
| 20260504184705 | 68 | 199 | 6.1 | 14.8 | 0.00 | 0.00 | 0.00 | 48 | 1010.5 |
| 20260504184609 | 68 | 227 | 6.1 | 14.8 | 0.00 | 0.00 | 0.00 | 48 | 1010.8 |
| 20260504184605 | 68 | 195 | 6.1 | 14.8 | 0.00 | 0.00 | 0.00 | 48 | 1010.6 |
| 20260504184505 | 68 | 193 | 6.1 | 13.9 | 0.00 | 0.00 | 0.00 | 47 | 1010.6 |
| 20260504184405 | 68 | 195 | 5.2 | 15.6 | 0.00 | 0.00 | 0.00 | 48 | 1010.6 |
| 20260504184304 | 68 | 198 | 5.2 | 15.6 | 0.00 | 0.00 | 0.00 | 47 | 1010.6 |
| 20260504184205 | 68 | 198 | 5.2 | 15.6 | 0.00 | 0.00 | 0.00 | 49 | 1010.6 |
| 20260504184105 | 68 | 196 | 5.2 | 15.6 | 0.00 | 0.00 | 0.00 | 49 | 1010.6 |
| 20260504184005 | 68 | 201 | 5.2 | 15.6 | 0.00 | 0.00 | 0.00 | 49 | 1010.6 |
| 20260504183905 | 68 | 208 | 4.3 | 15.6 | 0.00 | 0.00 | 0.00 | 49 | 1010.7 |
| 20260504183806 | 68 | 210 | 4.3 | 15.6 | 0.00 | 0.00 | 0.00 | 48 | 1010.7 |
| 20260504183705 | 68 | 212 | 4.3 | 15.6 | 0.00 | 0.00 | 0.00 | 48 | 1010.7 |
| 20260504183605 | 68 | 217 | 4.3 | 15.6 | 0.00 | 0.00 | 0.00 | 49 | 1010.8 |
| 20260504183505 | 68 | 218 | 4.3 | 15.6 | 0.00 | 0.00 | 0.00 | 49 | 1010.7 |
| 20260504183404 | 68 | 218 | 5.2 | 13.9 | 0.00 | 0.00 | 0.00 | 48 | 1010.7 |
| 20260504183306 | 68 | 214 | 5.2 | 13.9 | 0.00 | 0.00 | 0.00 | 48 | 1010.8 |
| 20260504183205 | 68 | 216 | 5.2 | 13.9 | 0.00 | 0.00 | 0.00 | 49 | 1010.8 |
| 20260504183117 | 67 | 209 | 5.2 | 17.4 | 0.00 | 0.00 | 0.00 | 48 | 1011.1 |
| 20260504183105 | 68 | 214 | 5.2 | 13.0 | 0.00 | 0.00 | 0.00 | 48 | 1010.9 |
| 20260504183005 | 68 | 215 | 5.2 | 13.0 | 0.00 | 0.00 | 0.00 | 47 | 1010.8 |
| 20260504182905 | 68 | 218 | 5.2 | 13.0 | 0.00 | 0.00 | 0.00 | 47 | 1010.8 |
| 20260504182805 | 68 | 220 | 5.2 | 13.0 | 0.00 | 0.00 | 0.00 | 47 | 1010.8 |
| 20260504182705 | 68 | 220 | 5.2 | 13.0 | 0.00 | 0.00 | 0.00 | 48 | 1010.8 |
| 20260504182605 | 68 | 220 | 5.2 | 13.0 | 0.00 | 0.00 | 0.00 | 47 | 1010.7 |
| 20260504182505 | 68 | 217 | 5.2 | 13.0 | 0.00 | 0.00 | 0.00 | 48 | 1010.8 |
| 20260504182405 | 68 | 218 | 6.1 | 11.3 | 0.00 | 0.00 | 0.00 | 48 | 1010.8 |
| 20260504182305 | 68 | 220 | 6.1 | 15.6 | 0.00 | 0.00 | 0.00 | 49 | 1010.8 |
| 20260504182205 | 68 | 220 | 5.2 | 15.6 | 0.00 | 0.00 | 0.00 | 48 | 1010.8 |
| 20260504182105 | 68 | 225 | 5.2 | 15.6 | 0.00 | 0.00 | 0.00 | 48 | 1010.8 |
| 20260504182005 | 68 | 223 | 5.2 | 15.6 | 0.00 | 0.00 | 0.00 | 48 | 1010.8 |
| 20260504181904 | 68 | 219 | 5.2 | 15.6 | 0.00 | 0.00 | 0.00 | 50 | 1010.9 |
| 20260504181805 | 68 | 217 | 5.2 | 15.6 | 0.00 | 0.00 | 0.00 | 49 | 1010.8 |
| 20260504181705 | 68 | 216 | 5.2 | 15.6 | 0.00 | 0.00 | 0.00 | 49 | 1010.8 |
| 20260504181608 | 67 | 206 | 7.0 | 16.5 | 0.00 | 0.00 | 0.00 | 50 | 1011.2 |
| 20260504181605 | 68 | 214 | 5.2 | 15.6 | 0.00 | 0.00 | 0.00 | 48 | 1010.9 |
| 20260504181505 | 68 | 216 | 4.3 | 15.6 | 0.00 | 0.00 | 0.00 | 50 | 1010.9 |
| 20260504181405 | 68 | 210 | 4.3 | 15.6 | 0.00 | 0.00 | 0.00 | 50 | 1010.8 |
| 20260504181305 | 68 | 211 | 4.3 | 12.2 | 0.00 | 0.00 | 0.00 | 50 | 1010.9 |
| 20260504181205 | 67 | 213 | 5.2 | 18.2 | 0.00 | 0.00 | 0.00 | 50 | 1010.9 |
| 20260504181105 | 67 | 211 | 5.2 | 18.2 | 0.00 | 0.00 | 0.00 | 50 | 1010.9 |
| 20260504181005 | 67 | 212 | 6.1 | 18.2 | 0.00 | 0.00 | 0.00 | 50 | 1010.9 |
| 20260504180905 | 67 | 211 | 6.1 | 18.2 | 0.00 | 0.00 | 0.00 | 50 | 1010.9 |
| 20260504180804 | 67 | 210 | 6.1 | 18.2 | 0.00 | 0.00 | 0.00 | 49 | 1010.9 |
| 20260504180704 | 67 | 207 | 6.1 | 18.2 | 0.00 | 0.00 | 0.00 | 48 | 1010.9 |
| 20260504180605 | 67 | 210 | 7.0 | 18.2 | 0.00 | 0.00 | 0.00 | 48 | 1010.9 |
| 20260504180505 | 67 | 214 | 7.8 | 18.2 | 0.00 | 0.00 | 0.00 | 48 | 1010.9 |
| 20260504180405 | 67 | 219 | 7.8 | 18.2 | 0.00 | 0.00 | 0.00 | 47 | 1011.0 |
| 20260504180305 | 67 | 218 | 7.0 | 18.2 | 0.00 | 0.00 | 0.00 | 47 | 1011.0 |
| 20260504180205 | 67 | 217 | 7.0 | 18.2 | 0.00 | 0.00 | 0.00 | 48 | 1010.9 |
| 20260504180128 | 67 | 199 | 7.8 | 17.4 | 0.00 | 0.00 | 0.00 | 46 | 1011.1 |
| 20260504180105 | 67 | 219 | 7.0 | 18.2 | 0.00 | 0.00 | 0.00 | 46 | 1011.0 |
| 20260504180005 | 67 | 220 | 6.1 | 18.2 | 0.00 | 0.00 | 0.00 | 47 | 1011.0 |
| 20260504175905 | 67 | 222 | 5.2 | 13.0 | 0.00 | 0.00 | 0.00 | 48 | 1011.1 |
| 20260504175804 | 67 | 222 | 5.2 | 13.0 | 0.00 | 0.00 | 0.00 | 47 | 1011.0 |
| 20260504175704 | 67 | 225 | 5.2 | 13.0 | 0.00 | 0.00 | 0.00 | 46 | 1011.1 |
| 20260504175605 | 67 | 223 | 5.2 | 13.0 | 0.00 | 0.00 | 0.00 | 47 | 1011.0 |
| 20260504175505 | 67 | 215 | 6.1 | 16.5 | 0.00 | 0.00 | 0.00 | 48 | 1011.1 |
| 20260504175405 | 67 | 210 | 6.1 | 16.5 | 0.00 | 0.00 | 0.00 | 48 | 1011.1 |
| 20260504175305 | 67 | 207 | 6.1 | 16.5 | 0.00 | 0.00 | 0.00 | 48 | 1011.1 |
| 20260504175205 | 67 | 205 | 6.1 | 16.5 | 0.00 | 0.00 | 0.00 | 48 | 1011.1 |
| 20260504175105 | 67 | 203 | 6.1 | 16.5 | 0.00 | 0.00 | 0.00 | 48 | 1011.1 |
| 20260504175005 | 67 | 201 | 7.0 | 16.5 | 0.00 | 0.00 | 0.00 | 48 | 1011.2 |
| 20260504174904 | 67 | 202 | 7.0 | 16.5 | 0.00 | 0.00 | 0.00 | 48 | 1011.2 |
| 20260504174805 | 67 | 203 | 7.0 | 16.5 | 0.00 | 0.00 | 0.00 | 47 | 1011.2 |
| 20260504174705 | 67 | 204 | 7.0 | 16.5 | 0.00 | 0.00 | 0.00 | 46 | 1011.2 |
| 20260504174606 | 67 | 225 | 10.4 | 15.6 | 0.00 | 0.00 | 0.00 | 46 | 1011.3 |
| 20260504174506 | 67 | 202 | 5.2 | 13.0 | 0.00 | 0.00 | 0.00 | 47 | 1011.2 |
| 20260504174405 | 67 | 201 | 5.2 | 14.8 | 0.00 | 0.00 | 0.00 | 47 | 1011.2 |
| 20260504174305 | 67 | 201 | 5.2 | 14.8 | 0.00 | 0.00 | 0.00 | 48 | 1011.2 |
| 20260504174204 | 67 | 203 | 4.3 | 14.8 | 0.00 | 0.00 | 0.00 | 48 | 1011.2 |
| 20260504174105 | 67 | 206 | 4.3 | 14.8 | 0.00 | 0.00 | 0.00 | 48 | 1011.1 |
| 20260504174005 | 67 | 207 | 4.3 | 14.8 | 0.00 | 0.00 | 0.00 | 48 | 1011.1 |
| 20260504173405 | 67 | 225 | 5.2 | 14.8 | 0.00 | 0.00 | 0.00 | 48 | 1011.1 |
| 20260504173305 | 67 | 230 | 5.2 | 14.8 | 0.00 | 0.00 | 0.00 | 48 | 1011.1 |
| 20260504173205 | 67 | 227 | 5.2 | 14.8 | 0.00 | 0.00 | 0.00 | 47 | 1011.2 |
| 20260504173114 | 66 | 207 | 4.3 | 14.8 | 0.00 | 0.00 | 0.00 | 46 | 1011.4 |
| 20260504173105 | 67 | 228 | 6.1 | 19.1 | 0.00 | 0.00 | 0.00 | 47 | 1011.1 |
| 20260504173005 | 67 | 229 | 6.1 | 19.1 | 0.00 | 0.00 | 0.00 | 47 | 1011.1 |
| 20260504172905 | 67 | 224 | 7.0 | 19.1 | 0.00 | 0.00 | 0.00 | 47 | 1011.1 |
| 20260504172805 | 67 | 225 | 7.0 | 19.1 | 0.00 | 0.00 | 0.00 | 46 | 1011.1 |
| 20260504172705 | 67 | 226 | 7.0 | 19.1 | 0.00 | 0.00 | 0.00 | 46 | 1011.1 |
| 20260504172605 | 67 | 222 | 7.0 | 19.1 | 0.00 | 0.00 | 0.00 | 46 | 1011.1 |
| 20260504172505 | 67 | 220 | 7.0 | 19.1 | 0.00 | 0.00 | 0.00 | 46 | 1011.1 |
| 20260504172404 | 67 | 216 | 6.1 | 19.1 | 0.00 | 0.00 | 0.00 | 46 | 1011.2 |
| 20260504172305 | 67 | 216 | 6.1 | 19.1 | 0.00 | 0.00 | 0.00 | 46 | 1011.2 |
| 20260504172205 | 67 | 218 | 6.1 | 19.1 | 0.00 | 0.00 | 0.00 | 45 | 1011.2 |
| 20260504172105 | 67 | 217 | 6.1 | 19.1 | 0.00 | 0.00 | 0.00 | 46 | 1011.2 |
| 20260504172005 | 67 | 214 | 6.1 | 19.1 | 0.00 | 0.00 | 0.00 | 45 | 1011.2 |
| 20260504171904 | 67 | 217 | 6.1 | 19.1 | 0.00 | 0.00 | 0.00 | 46 | 1011.3 |
| 20260504171805 | 67 | 222 | 6.1 | 19.1 | 0.00 | 0.00 | 0.00 | 46 | 1011.2 |
| 20260504171705 | 67 | 222 | 7.0 | 18.2 | 0.00 | 0.00 | 0.00 | 47 | 1011.2 |
| 20260504171615 | 66 | 257 | 5.2 | 18.2 | 0.00 | 0.00 | 0.00 | 46 | 1011.4 |
| 20260504171606 | 67 | 227 | 7.0 | 18.2 | 0.00 | 0.00 | 0.00 | 46 | 1011.1 |
| 20260504171505 | 67 | 230 | 7.0 | 18.2 | 0.00 | 0.00 | 0.00 | 45 | 1011.1 |
| 20260504171405 | 67 | 231 | 7.0 | 18.2 | 0.00 | 0.00 | 0.00 | 45 | 1011.2 |
| 20260504171305 | 67 | 230 | 7.8 | 18.2 | 0.00 | 0.00 | 0.00 | 45 | 1011.2 |
| 20260504171205 | 67 | 228 | 7.8 | 18.2 | 0.00 | 0.00 | 0.00 | 45 | 1011.3 |
| 20260504171105 | 67 | 231 | 7.8 | 18.2 | 0.00 | 0.00 | 0.00 | 45 | 1011.3 |
| 20260504171005 | 67 | 234 | 8.7 | 18.2 | 0.00 | 0.00 | 0.00 | 44 | 1011.3 |
| 20260504170905 | 67 | 232 | 7.8 | 20.9 | 0.00 | 0.00 | 0.00 | 44 | 1011.3 |
| 20260504170304 | 67 | 210 | 7.0 | 20.9 | 0.00 | 0.00 | 0.00 | 41 | 1011.3 |
| 20260504170205 | 67 | 207 | 7.0 | 20.9 | 0.00 | 0.00 | 0.00 | 43 | 1011.3 |
| 20260504170111 | 66 | 229 | 7.8 | 20.9 | 0.00 | 0.00 | 0.00 | 44 | 1011.6 |
| 20260504170105 | 67 | 202 | 7.0 | 20.9 | 0.00 | 0.00 | 0.00 | 45 | 1011.3 |
| 20260504160405 | 65 | 247 | 8.7 | 24.3 | 0.00 | 0.00 | 0.00 | 38 | 1011.8 |
| 20260504160305 | 65 | 247 | 9.6 | 24.3 | 0.00 | 0.00 | 0.00 | 37 | 1011.9 |
| 20260504160205 | 65 | 245 | 9.6 | 24.3 | 0.00 | 0.00 | 0.00 | 37 | 1011.9 |
| 20260504160112 | 64 | 254 | 9.6 | 22.6 | 0.00 | 0.00 | 0.00 | 38 | 1012.1 |
| 20260504160105 | 65 | 244 | 9.6 | 24.3 | 0.00 | 0.00 | 0.00 | 38 | 1011.9 |
| 20260504151105 | 64 | 249 | 7.0 | 19.1 | 0.00 | 0.00 | 0.00 | 43 | 1012.4 |
| 20260504151005 | 64 | 251 | 7.8 | 19.1 | 0.00 | 0.00 | 0.00 | 42 | 1012.4 |
| 20260504150905 | 64 | 249 | 7.8 | 19.1 | 0.00 | 0.00 | 0.00 | 41 | 1012.4 |
| 20260504150804 | 64 | 251 | 7.8 | 19.1 | 0.00 | 0.00 | 0.00 | 42 | 1012.4 |
| 20260504150705 | 64 | 252 | 7.8 | 19.1 | 0.00 | 0.00 | 0.00 | 42 | 1012.4 |
| 20260504150605 | 64 | 252 | 7.8 | 19.1 | 0.00 | 0.00 | 0.00 | 42 | 1012.3 |
| 20260504150504 | 64 | 251 | 7.8 | 19.1 | 0.00 | 0.00 | 0.00 | 42 | 1012.3 |
| 20260504150405 | 64 | 248 | 7.8 | 17.4 | 0.00 | 0.00 | 0.00 | 44 | 1012.4 |
| 20260504150305 | 64 | 246 | 8.7 | 21.7 | 0.00 | 0.00 | 0.00 | 43 | 1012.3 |
| 20260504150205 | 64 | 245 | 8.7 | 21.7 | 0.00 | 0.00 | 0.00 | 43 | 1012.4 |
| 20260504150105 | 63 | 246 | 8.7 | 21.7 | 0.00 | 0.00 | 0.00 | 43 | 1012.4 |
| 20260504141305 | 62 | 243 | 7.0 | 18.2 | 0.00 | 0.00 | 0.00 | 46 | 1012.6 |
| 20260504141205 | 61 | 244 | 7.0 | 18.2 | 0.00 | 0.00 | 0.00 | 47 | 1012.6 |
| 20260504141105 | 61 | 245 | 7.8 | 25.2 | 0.00 | 0.00 | 0.00 | 45 | 1012.6 |
| 20260504141005 | 61 | 247 | 7.8 | 25.2 | 0.00 | 0.00 | 0.00 | 45 | 1012.6 |
| 20260504140905 | 61 | 246 | 7.8 | 25.2 | 0.00 | 0.00 | 0.00 | 45 | 1012.6 |
| 20260504140805 | 61 | 247 | 7.8 | 25.2 | 0.00 | 0.00 | 0.00 | 44 | 1012.6 |
| 20260504140705 | 61 | 246 | 7.8 | 25.2 | 0.00 | 0.00 | 0.00 | 45 | 1012.6 |
| 20260504140605 | 61 | 244 | 7.0 | 25.2 | 0.00 | 0.00 | 0.00 | 45 | 1012.6 |
| 20260504140505 | 61 | 244 | 7.8 | 25.2 | 0.00 | 0.00 | 0.00 | 45 | 1012.6 |
| 20260504140405 | 61 | 244 | 7.8 | 25.2 | 0.00 | 0.00 | 0.00 | 45 | 1012.6 |
| 20260504140305 | 61 | 243 | 7.8 | 25.2 | 0.00 | 0.00 | 0.00 | 45 | 1012.6 |
| 20260504140205 | 61 | 242 | 7.8 | 25.2 | 0.00 | 0.00 | 0.00 | 45 | 1012.6 |
| 20260504140105 | 61 | 240 | 7.8 | 19.1 | 0.00 | 0.00 | 0.00 | 47 | 1012.6 |
| 20260504130805 | 58 | 238 | 5.2 | 15.6 | 0.00 | 0.00 | 0.00 | 51 | 1013.1 |
| 20260504130705 | 58 | 236 | 5.2 | 15.6 | 0.00 | 0.00 | 0.00 | 51 | 1013.1 |
| 20260504130605 | 58 | 236 | 5.2 | 13.9 | 0.00 | 0.00 | 0.00 | 51 | 1013.1 |
| 20260504130505 | 58 | 234 | 6.1 | 13.9 | 0.00 | 0.00 | 0.00 | 51 | 1013.1 |
| 20260504130404 | 58 | 236 | 6.1 | 13.9 | 0.00 | 0.00 | 0.00 | 51 | 1013.2 |
| 20260504130305 | 58 | 233 | 7.0 | 14.8 | 0.00 | 0.00 | 0.00 | 51 | 1013.1 |
| 20260504130205 | 58 | 232 | 7.0 | 14.8 | 0.00 | 0.00 | 0.00 | 50 | 1013.1 |
| 20260504130120 | 58 | 212 | 4.3 | 14.8 | 0.00 | 0.00 | 0.00 | 50 | 1013.4 |
| 20260504130104 | 58 | 233 | 7.0 | 14.8 | 0.00 | 0.00 | 0.00 | 50 | 1013.1 |
| 20260504120304 | 54 | 212 | 6.1 | 16.5 | 0.00 | 0.00 | 0.00 | 57 | 1013.2 |
| 20260504120205 | 54 | 212 | 6.1 | 16.5 | 0.00 | 0.00 | 0.00 | 58 | 1013.1 |
| 20260504120114 | 54 | 245 | 6.1 | 15.6 | 0.00 | 0.00 | 0.00 | 57 | 1013.4 |
| 20260504120105 | 54 | 210 | 5.2 | 16.5 | 0.00 | 0.00 | 0.00 | 58 | 1013.2 |
| 20260504110705 | 50 | 191 | 6.1 | 15.6 | 0.00 | 0.00 | 0.00 | 64 | 1013.2 |
| 20260504110605 | 50 | 194 | 6.1 | 15.6 | 0.00 | 0.00 | 0.00 | 64 | 1013.3 |
| 20260504110505 | 50 | 195 | 6.1 | 15.6 | 0.00 | 0.00 | 0.00 | 64 | 1013.2 |
| 20260504110404 | 50 | 197 | 6.1 | 15.6 | 0.00 | 0.00 | 0.00 | 63 | 1013.2 |
| 20260504110305 | 50 | 199 | 5.2 | 15.6 | 0.00 | 0.00 | 0.00 | 64 | 1013.3 |
| 20260504110205 | 50 | 199 | 5.2 | 15.6 | 0.00 | 0.00 | 0.00 | 64 | 1013.2 |
| 20260504110114 | 49 | 146 | 6.1 | 15.6 | 0.00 | 0.00 | 0.00 | 64 | 1013.5 |
| 20260504110104 | 50 | 198 | 5.2 | 15.6 | 0.00 | 0.00 | 0.00 | 64 | 1013.3 |
| 20260504100605 | 48 | 187 | 7.8 | 13.0 | 0.00 | 0.00 | 0.00 | 63 | 1012.9 |
| 20260504100504 | 48 | 187 | 7.8 | 13.0 | 0.00 | 0.00 | 0.00 | 63 | 1012.9 |
| 20260504100404 | 48 | 187 | 7.8 | 13.0 | 0.00 | 0.00 | 0.00 | 63 | 1012.9 |
| 20260504100305 | 48 | 187 | 7.8 | 13.0 | 0.00 | 0.00 | 0.00 | 63 | 1012.9 |
| 20260504100204 | 48 | 187 | 7.8 | 13.0 | 0.00 | 0.00 | 0.00 | 62 | 1012.9 |
| 20260504100108 | 48 | 174 | 6.1 | 12.2 | 0.00 | 0.00 | 0.00 | 62 | 1013.1 |
| 20260504100105 | 48 | 188 | 7.8 | 12.2 | 0.00 | 0.00 | 0.00 | 63 | 1012.9 |
| 20260504090105 | 49 | 197 | 6.1 | 10.4 | 0.00 | 0.00 | 0.00 | 61 | 1012.6 |
| 20260504081704 | 50 | 219 | 6.1 | 14.8 | 0.00 | 0.00 | 0.00 | 58 | 1012.4 |
| 20260504081613 | 50 | 235 | 6.1 | 13.9 | 0.00 | 0.00 | 0.00 | 58 | 1012.7 |
| 20260504081604 | 50 | 218 | 6.1 | 14.8 | 0.00 | 0.00 | 0.00 | 58 | 1012.4 |
| 20260504081505 | 51 | 217 | 6.1 | 14.8 | 0.00 | 0.00 | 0.00 | 58 | 1012.5 |
| 20260504081404 | 51 | 218 | 6.1 | 14.8 | 0.00 | 0.00 | 0.00 | 58 | 1012.4 |
| 20260504081304 | 51 | 219 | 5.2 | 13.0 | 0.00 | 0.00 | 0.00 | 58 | 1012.4 |
| 20260504080704 | 51 | 224 | 6.1 | 11.3 | 0.00 | 0.00 | 0.00 | 57 | 1012.4 |
| 20260504080605 | 51 | 227 | 6.1 | 15.6 | 0.00 | 0.00 | 0.00 | 56 | 1012.4 |
| 20260504080505 | 51 | 230 | 7.0 | 16.5 | 0.00 | 0.00 | 0.00 | 56 | 1012.4 |
| 20260504080404 | 51 | 232 | 7.0 | 16.5 | 0.00 | 0.00 | 0.00 | 56 | 1012.4 |
| 20260504080305 | 51 | 236 | 7.8 | 16.5 | 0.00 | 0.00 | 0.00 | 56 | 1012.4 |
| 20260504080205 | 51 | 238 | 7.8 | 18.2 | 0.00 | 0.00 | 0.00 | 56 | 1012.3 |
| 20260504080119 | 51 | 213 | 7.0 | 16.5 | 0.00 | 0.00 | 0.00 | 57 | 1012.6 |
| 20260504080104 | 51 | 239 | 7.8 | 18.2 | 0.00 | 0.00 | 0.00 | 56 | 1012.4 |
| 20260504070404 | 48 | 196 | 7.8 | 17.4 | 0.00 | 0.00 | 0.00 | 62 | 1011.8 |
| 20260504070305 | 48 | 194 | 7.8 | 17.4 | 0.00 | 0.00 | 0.00 | 63 | 1011.7 |
| 20260504070204 | 48 | 192 | 7.8 | 13.0 | 0.00 | 0.00 | 0.00 | 63 | 1011.8 |
| 20260504070115 | 48 | 175 | 7.0 | 13.0 | 0.00 | 0.00 | 0.00 | 63 | 1012.1 |
| 20260504070105 | 48 | 194 | 7.8 | 13.0 | 0.00 | 0.00 | 0.00 | 63 | 1011.8 |
| 20260504060205 | 49 | 204 | 7.8 | 13.9 | 0.00 | 0.00 | 0.00 | 63 | 1011.8 |
| 20260504060113 | 48 | 192 | 7.8 | 13.9 | 0.00 | 0.00 | 0.00 | 63 | 1012.0 |
| 20260504060105 | 49 | 206 | 7.8 | 13.9 | 0.00 | 0.00 | 0.00 | 63 | 1011.7 |
| 20260504050115 | 0 | 213 | 6.1 | 11.3 | 0.00 | 0.00 | 0.00 | 1012.0 | |
| 20260504045904 | 49 | 203 | 7.0 | 13.0 | 0.00 | 0.00 | 0.00 | 57 | 1011.7 |
| 20260504045805 | 49 | 201 | 7.0 | 13.0 | 0.00 | 0.00 | 0.00 | 57 | 1011.7 |
| 20260504045704 | 49 | 201 | 7.0 | 13.0 | 0.00 | 0.00 | 0.00 | 57 | 1011.7 |
| 20260504045605 | 49 | 200 | 7.0 | 13.0 | 0.00 | 0.00 | 0.00 | 57 | 1011.8 |
| 20260504045504 | 49 | 201 | 7.0 | 13.0 | 0.00 | 0.00 | 0.00 | 57 | 1011.8 |
| 20260504045405 | 49 | 200 | 7.0 | 13.0 | 0.00 | 0.00 | 0.00 | 56 | 1011.8 |
| 20260504045305 | 49 | 199 | 7.0 | 13.0 | 0.00 | 0.00 | 0.00 | 56 | 1011.8 |
| 20260504045204 | 49 | 198 | 7.0 | 13.0 | 0.00 | 0.00 | 0.00 | 54 | 1011.8 |
| 20260504045105 | 49 | 196 | 7.0 | 11.3 | 0.00 | 0.00 | 0.00 | 54 | 1011.8 |
| 20260504045004 | 49 | 194 | 7.0 | 11.3 | 0.00 | 0.00 | 0.00 | 54 | 1011.7 |
| 20260504044905 | 49 | 191 | 7.0 | 11.3 | 0.00 | 0.00 | 0.00 | 54 | 1011.8 |
| 20260504044805 | 49 | 191 | 7.0 | 11.3 | 0.00 | 0.00 | 0.00 | 53 | 1011.8 |
| 20260504044705 | 49 | 191 | 7.0 | 11.3 | 0.00 | 0.00 | 0.00 | 53 | 1011.8 |
| 20260504044604 | 49 | 202 | 7.0 | 10.4 | 0.00 | 0.00 | 0.00 | 52 | 1012.0 |
| 20260504044505 | 49 | 192 | 7.0 | 11.3 | 0.00 | 0.00 | 0.00 | 52 | 1011.8 |
| 20260504044405 | 49 | 191 | 7.0 | 11.3 | 0.00 | 0.00 | 0.00 | 52 | 1011.8 |
| 20260504044304 | 49 | 192 | 7.0 | 11.3 | 0.00 | 0.00 | 0.00 | 52 | 1011.8 |
| 20260504044204 | 49 | 192 | 7.0 | 11.3 | 0.00 | 0.00 | 0.00 | 52 | 1011.7 |
| 20260504044104 | 49 | 193 | 7.0 | 11.3 | 0.00 | 0.00 | 0.00 | 52 | 1011.8 |
| 20260504044005 | 49 | 193 | 7.0 | 11.3 | 0.00 | 0.00 | 0.00 | 51 | 1011.8 |
| 20260504043904 | 49 | 193 | 7.0 | 11.3 | 0.00 | 0.00 | 0.00 | 51 | 1011.8 |
| 20260504043805 | 49 | 195 | 7.0 | 11.3 | 0.00 | 0.00 | 0.00 | 51 | 1011.7 |
| 20260504043705 | 49 | 197 | 7.0 | 11.3 | 0.00 | 0.00 | 0.00 | 51 | 1011.8 |
| 20260504043605 | 49 | 196 | 7.0 | 11.3 | 0.00 | 0.00 | 0.00 | 51 | 1011.7 |
| 20260504043504 | 49 | 198 | 7.0 | 11.3 | 0.00 | 0.00 | 0.00 | 51 | 1011.8 |
| 20260504043405 | 50 | 200 | 7.0 | 11.3 | 0.00 | 0.00 | 0.00 | 51 | 1011.8 |
| 20260504043304 | 50 | 200 | 7.0 | 10.4 | 0.00 | 0.00 | 0.00 | 51 | 1011.8 |
| 20260504043204 | 49 | 202 | 7.0 | 11.3 | 0.00 | 0.00 | 0.00 | 51 | 1011.8 |
| 20260504043113 | 49 | 188 | 6.1 | 11.3 | 0.00 | 0.00 | 0.00 | 50 | 1012.0 |
| 20260504043104 | 50 | 202 | 7.0 | 11.3 | 0.00 | 0.00 | 0.00 | 50 | 1011.8 |
| 20260504043005 | 50 | 202 | 7.0 | 11.3 | 0.00 | 0.00 | 0.00 | 50 | 1011.8 |
| 20260504042904 | 50 | 202 | 7.0 | 11.3 | 0.00 | 0.00 | 0.00 | 50 | 1011.8 |
| 20260504042804 | 50 | 202 | 7.0 | 11.3 | 0.00 | 0.00 | 0.00 | 50 | 1011.8 |
| 20260504042704 | 50 | 202 | 7.0 | 11.3 | 0.00 | 0.00 | 0.00 | 50 | 1011.8 |
| 20260504042605 | 50 | 203 | 7.0 | 12.2 | 0.00 | 0.00 | 0.00 | 50 | 1011.8 |
| 20260504042505 | 50 | 202 | 7.0 | 12.2 | 0.00 | 0.00 | 0.00 | 50 | 1011.8 |
| 20260504042404 | 50 | 203 | 7.0 | 12.2 | 0.00 | 0.00 | 0.00 | 50 | 1011.8 |
| 20260504042305 | 50 | 206 | 7.0 | 13.0 | 0.00 | 0.00 | 0.00 | 50 | 1011.8 |
| 20260504042205 | 50 | 205 | 7.0 | 13.0 | 0.00 | 0.00 | 0.00 | 50 | 1011.7 |
| 20260504041617 | 49 | 205 | 7.0 | 13.0 | 0.00 | 0.00 | 0.00 | 50 | 1012.0 |
| 20260504040504 | 50 | 201 | 6.1 | 11.3 | 0.00 | 0.00 | 0.00 | 49 | 1011.6 |
| 20260504040404 | 50 | 200 | 6.1 | 11.3 | 0.00 | 0.00 | 0.00 | 49 | 1011.7 |
| 20260504040305 | 50 | 199 | 7.0 | 11.3 | 0.00 | 0.00 | 0.00 | 49 | 1011.6 |
| 20260504040204 | 50 | 197 | 7.0 | 11.3 | 0.00 | 0.00 | 0.00 | 49 | 1011.7 |
| 20260504040111 | 49 | 176 | 6.1 | 11.3 | 0.00 | 0.00 | 0.00 | 49 | 1011.9 |
| 20260504040104 | 50 | 196 | 7.0 | 11.3 | 0.00 | 0.00 | 0.00 | 49 | 1011.6 |
| 20260504040005 | 50 | 195 | 6.1 | 11.3 | 0.00 | 0.00 | 0.00 | 49 | 1011.7 |
| 20260504035905 | 50 | 195 | 6.1 | 11.3 | 0.00 | 0.00 | 0.00 | 49 | 1011.6 |
| 20260504035804 | 50 | 194 | 6.1 | 10.4 | 0.00 | 0.00 | 0.00 | 49 | 1011.7 |
| 20260504035704 | 50 | 194 | 6.1 | 10.4 | 0.00 | 0.00 | 0.00 | 49 | 1011.6 |
| 20260504035604 | 50 | 193 | 6.1 | 10.4 | 0.00 | 0.00 | 0.00 | 49 | 1011.6 |
| 20260504035504 | 50 | 192 | 6.1 | 10.4 | 0.00 | 0.00 | 0.00 | 49 | 1011.6 |
| 20260504035405 | 50 | 192 | 6.1 | 10.4 | 0.00 | 0.00 | 0.00 | 49 | 1011.6 |
| 20260504035305 | 50 | 191 | 6.1 | 10.4 | 0.00 | 0.00 | 0.00 | 49 | 1011.6 |
| 20260504035204 | 50 | 191 | 6.1 | 10.4 | 0.00 | 0.00 | 0.00 | 49 | 1011.6 |
| 20260504035105 | 50 | 190 | 6.1 | 11.3 | 0.00 | 0.00 | 0.00 | 49 | 1011.5 |
| 20260504035005 | 50 | 191 | 6.1 | 11.3 | 0.00 | 0.00 | 0.00 | 48 | 1011.6 |
| 20260504034905 | 50 | 191 | 6.1 | 11.3 | 0.00 | 0.00 | 0.00 | 48 | 1011.5 |
| 20260504034805 | 50 | 192 | 6.1 | 11.3 | 0.00 | 0.00 | 0.00 | 48 | 1011.5 |
| 20260504034704 | 50 | 190 | 6.1 | 11.3 | 0.00 | 0.00 | 0.00 | 48 | 1011.5 |
| 20260504034633 | 50 | 189 | 6.1 | 11.3 | 0.00 | 0.00 | 0.00 | 48 | 1011.8 |
| 20260504034605 | 50 | 189 | 6.1 | 11.3 | 0.00 | 0.00 | 0.00 | 48 | 1011.6 |
| 20260504034505 | 50 | 189 | 6.1 | 11.3 | 0.00 | 0.00 | 0.00 | 48 | 1011.5 |
| 20260504034404 | 50 | 189 | 6.1 | 11.3 | 0.00 | 0.00 | 0.00 | 48 | 1011.5 |
| 20260504034304 | 51 | 190 | 7.0 | 11.3 | 0.00 | 0.00 | 0.00 | 48 | 1011.5 |
| 20260504034205 | 51 | 192 | 7.0 | 11.3 | 0.00 | 0.00 | 0.00 | 48 | 1011.5 |
| 20260504034104 | 51 | 195 | 7.0 | 11.3 | 0.00 | 0.00 | 0.00 | 48 | 1011.5 |
| 20260504034004 | 51 | 196 | 7.0 | 11.3 | 0.00 | 0.00 | 0.00 | 48 | 1011.5 |
| 20260504033905 | 51 | 197 | 6.1 | 11.3 | 0.00 | 0.00 | 0.00 | 48 | 1011.4 |
| 20260504033804 | 51 | 199 | 6.1 | 11.3 | 0.00 | 0.00 | 0.00 | 48 | 1011.5 |
| 20260504033704 | 51 | 202 | 6.1 | 11.3 | 0.00 | 0.00 | 0.00 | 47 | 1011.5 |
| 20260504033605 | 51 | 207 | 5.2 | 11.3 | 0.00 | 0.00 | 0.00 | 47 | 1011.5 |
| 20260504033504 | 51 | 211 | 5.2 | 11.3 | 0.00 | 0.00 | 0.00 | 47 | 1011.5 |
| 20260504033404 | 51 | 214 | 5.2 | 11.3 | 0.00 | 0.00 | 0.00 | 47 | 1011.5 |
| 20260504033105 | 51 | 213 | 5.2 | 9.6 | 0.00 | 0.00 | 0.00 | 47 | 1011.8 |
| 20260504032805 | 51 | 216 | 4.3 | 9.6 | 0.00 | 0.00 | 0.00 | 47 | 1011.4 |
| 20260504032704 | 51 | 216 | 4.3 | 9.6 | 0.00 | 0.00 | 0.00 | 47 | 1011.5 |
| 20260504032604 | 51 | 215 | 4.3 | 9.6 | 0.00 | 0.00 | 0.00 | 47 | 1011.4 |
| 20260504032505 | 51 | 216 | 4.3 | 9.6 | 0.00 | 0.00 | 0.00 | 47 | 1011.5 |
| 20260504032404 | 51 | 215 | 4.3 | 9.6 | 0.00 | 0.00 | 0.00 | 47 | 1011.5 |
| 20260504032304 | 51 | 214 | 3.5 | 9.6 | 0.00 | 0.00 | 0.00 | 47 | 1011.5 |
| 20260504032205 | 51 | 214 | 4.3 | 9.6 | 0.00 | 0.00 | 0.00 | 47 | 1011.5 |
| 20260504032104 | 51 | 213 | 3.5 | 9.6 | 0.00 | 0.00 | 0.00 | 47 | 1011.5 |
| 20260504032005 | 51 | 213 | 3.5 | 7.8 | 0.00 | 0.00 | 0.00 | 48 | 1011.5 |
| 20260504031904 | 51 | 213 | 3.5 | 7.8 | 0.00 | 0.00 | 0.00 | 49 | 1011.5 |
| 20260504031804 | 51 | 214 | 3.5 | 7.8 | 0.00 | 0.00 | 0.00 | 48 | 1011.5 |
| 20260504031705 | 51 | 213 | 3.5 | 7.8 | 0.00 | 0.00 | 0.00 | 47 | 1011.5 |
| 20260504031611 | 51 | 210 | 3.5 | 7.8 | 0.00 | 0.00 | 0.00 | 48 | 1011.8 |
| 20260504031604 | 51 | 216 | 3.5 | 7.8 | 0.00 | 0.00 | 0.00 | 48 | 1011.6 |
| 20260504031504 | 51 | 215 | 3.5 | 7.8 | 0.00 | 0.00 | 0.00 | 48 | 1011.5 |
| 20260504031405 | 51 | 216 | 3.5 | 7.8 | 0.00 | 0.00 | 0.00 | 48 | 1011.5 |
| 20260504031305 | 51 | 216 | 3.5 | 7.8 | 0.00 | 0.00 | 0.00 | 48 | 1011.5 |
| 20260504031204 | 51 | 216 | 3.5 | 7.8 | 0.00 | 0.00 | 0.00 | 48 | 1011.5 |
| 20260504031105 | 51 | 218 | 3.5 | 10.4 | 0.00 | 0.00 | 0.00 | 47 | 1011.5 |
| 20260504031004 | 51 | 218 | 4.3 | 10.4 | 0.00 | 0.00 | 0.00 | 48 | 1011.5 |
| 20260504030904 | 52 | 220 | 4.3 | 10.4 | 0.00 | 0.00 | 0.00 | 47 | 1011.5 |
| 20260504030805 | 52 | 221 | 4.3 | 10.4 | 0.00 | 0.00 | 0.00 | 47 | 1011.6 |
| 20260504030705 | 52 | 222 | 4.3 | 10.4 | 0.00 | 0.00 | 0.00 | 47 | 1011.6 |
| 20260504030604 | 52 | 224 | 4.3 | 10.4 | 0.00 | 0.00 | 0.00 | 47 | 1011.5 |
| 20260504030505 | 52 | 224 | 4.3 | 10.4 | 0.00 | 0.00 | 0.00 | 47 | 1011.6 |
| 20260504030405 | 52 | 224 | 4.3 | 10.4 | 0.00 | 0.00 | 0.00 | 47 | 1011.6 |
| 20260504030304 | 52 | 225 | 4.3 | 10.4 | 0.00 | 0.00 | 0.00 | 47 | 1011.6 |
| 20260504030205 | 52 | 226 | 4.3 | 10.4 | 0.00 | 0.00 | 0.00 | 46 | 1011.6 |
| 20260504030119 | 51 | 209 | 3.5 | 8.7 | 0.00 | 0.00 | 0.00 | 46 | 1011.8 |
| 20260504030105 | 52 | 226 | 4.3 | 8.7 | 0.00 | 0.00 | 0.00 | 47 | 1011.6 |
| 20260504030004 | 52 | 226 | 4.3 | 8.7 | 0.00 | 0.00 | 0.00 | 47 | 1011.6 |
| 20260504025904 | 52 | 227 | 4.3 | 8.7 | 0.00 | 0.00 | 0.00 | 47 | 1011.5 |
| 20260504025805 | 52 | 227 | 4.3 | 8.7 | 0.00 | 0.00 | 0.00 | 47 | 1011.6 |
| 20260504025704 | 52 | 226 | 4.3 | 8.7 | 0.00 | 0.00 | 0.00 | 47 | 1011.5 |
| 20260504025604 | 52 | 226 | 4.3 | 11.3 | 0.00 | 0.00 | 0.00 | 46 | 1011.5 |
| 20260504025505 | 52 | 226 | 5.2 | 11.3 | 0.00 | 0.00 | 0.00 | 47 | 1011.5 |
| 20260504025404 | 52 | 226 | 5.2 | 11.3 | 0.00 | 0.00 | 0.00 | 47 | 1011.5 |
| 20260504025304 | 52 | 227 | 5.2 | 11.3 | 0.00 | 0.00 | 0.00 | 47 | 1011.5 |
| 20260504025205 | 52 | 227 | 5.2 | 11.3 | 0.00 | 0.00 | 0.00 | 47 | 1011.5 |
| 20260504025105 | 52 | 227 | 5.2 | 11.3 | 0.00 | 0.00 | 0.00 | 46 | 1011.5 |
| 20260504025005 | 52 | 227 | 5.2 | 11.3 | 0.00 | 0.00 | 0.00 | 46 | 1011.5 |
| 20260504024905 | 52 | 227 | 5.2 | 11.3 | 0.00 | 0.00 | 0.00 | 46 | 1011.5 |
| 20260504024804 | 52 | 228 | 5.2 | 11.3 | 0.00 | 0.00 | 0.00 | 46 | 1011.5 |
| 20260504024704 | 52 | 229 | 5.2 | 11.3 | 0.00 | 0.00 | 0.00 | 47 | 1011.5 |
| 20260504024609 | 51 | 203 | 4.3 | 9.6 | 0.00 | 0.00 | 0.00 | 46 | 1011.8 |
| 20260504024604 | 52 | 227 | 5.2 | 10.4 | 0.00 | 0.00 | 0.00 | 47 | 1011.5 |
| 20260504024504 | 52 | 228 | 5.2 | 10.4 | 0.00 | 0.00 | 0.00 | 47 | 1011.5 |
| 20260504024405 | 52 | 227 | 5.2 | 10.4 | 0.00 | 0.00 | 0.00 | 47 | 1011.5 |
| 20260504024304 | 52 | 226 | 4.3 | 9.6 | 0.00 | 0.00 | 0.00 | 47 | 1011.5 |
| 20260504024204 | 52 | 226 | 4.3 | 9.6 | 0.00 | 0.00 | 0.00 | 46 | 1011.5 |
| 20260504024105 | 52 | 225 | 4.3 | 9.6 | 0.00 | 0.00 | 0.00 | 47 | 1011.5 |
| 20260504024005 | 52 | 225 | 5.2 | 9.6 | 0.00 | 0.00 | 0.00 | 47 | 1011.5 |
| 20260504023904 | 52 | 224 | 5.2 | 9.6 | 0.00 | 0.00 | 0.00 | 47 | 1011.5 |
| 20260504023804 | 52 | 223 | 5.2 | 9.6 | 0.00 | 0.00 | 0.00 | 47 | 1011.5 |
| 20260504023704 | 52 | 222 | 5.2 | 13.0 | 0.00 | 0.00 | 0.00 | 47 | 1011.5 |
| 20260504023604 | 52 | 222 | 5.2 | 13.0 | 0.00 | 0.00 | 0.00 | 47 | 1011.5 |
| 20260504023505 | 52 | 222 | 5.2 | 13.0 | 0.00 | 0.00 | 0.00 | 47 | 1011.5 |
| 20260504023404 | 52 | 223 | 5.2 | 13.0 | 0.00 | 0.00 | 0.00 | 46 | 1011.5 |
| 20260504023304 | 52 | 222 | 5.2 | 13.0 | 0.00 | 0.00 | 0.00 | 46 | 1011.5 |
| 20260504023205 | 52 | 223 | 5.2 | 13.0 | 0.00 | 0.00 | 0.00 | 47 | 1011.5 |
| 20260504023118 | 52 | 244 | 4.3 | 12.2 | 0.00 | 0.00 | 0.00 | 47 | 1011.8 |
| 20260504023104 | 52 | 223 | 5.2 | 13.0 | 0.00 | 0.00 | 0.00 | 47 | 1011.5 |
| 20260504023004 | 52 | 222 | 5.2 | 13.0 | 0.00 | 0.00 | 0.00 | 47 | 1011.6 |
| 20260504022905 | 52 | 222 | 5.2 | 13.0 | 0.00 | 0.00 | 0.00 | 47 | 1011.5 |
| 20260504022804 | 52 | 222 | 4.3 | 13.0 | 0.00 | 0.00 | 0.00 | 47 | 1011.5 |
| 20260504022704 | 52 | 223 | 4.3 | 9.6 | 0.00 | 0.00 | 0.00 | 47 | 1011.5 |
| 20260504022605 | 52 | 222 | 4.3 | 9.6 | 0.00 | 0.00 | 0.00 | 47 | 1011.5 |
| 20260504022505 | 52 | 221 | 4.3 | 10.4 | 0.00 | 0.00 | 0.00 | 47 | 1011.5 |
| 20260504022404 | 52 | 221 | 4.3 | 10.4 | 0.00 | 0.00 | 0.00 | 47 | 1011.4 |
| 20260504022305 | 52 | 222 | 4.3 | 10.4 | 0.00 | 0.00 | 0.00 | 47 | 1011.5 |
| 20260504022205 | 52 | 220 | 4.3 | 10.4 | 0.00 | 0.00 | 0.00 | 47 | 1011.5 |
| 20260504022104 | 52 | 220 | 4.3 | 10.4 | 0.00 | 0.00 | 0.00 | 46 | 1011.4 |
| 20260504022004 | 52 | 219 | 4.3 | 10.4 | 0.00 | 0.00 | 0.00 | 47 | 1011.4 |
| 20260504021905 | 52 | 219 | 4.3 | 10.4 | 0.00 | 0.00 | 0.00 | 47 | 1011.4 |
| 20260504021805 | 52 | 220 | 4.3 | 10.4 | 0.00 | 0.00 | 0.00 | 47 | 1011.4 |
| 20260504021704 | 52 | 219 | 4.3 | 10.4 | 0.00 | 0.00 | 0.00 | 47 | 1011.5 |
| 20260504021604 | 52 | 221 | 4.3 | 10.4 | 0.00 | 0.00 | 0.00 | 47 | 1011.5 |
| 20260504021602 | 52 | 248 | 4.3 | 10.4 | 0.00 | 0.00 | 0.00 | 47 | 1011.7 |
| 20260504021505 | 52 | 222 | 5.2 | 12.2 | 0.00 | 0.00 | 0.00 | 47 | 1011.5 |
| 20260504021404 | 52 | 224 | 5.2 | 12.2 | 0.00 | 0.00 | 0.00 | 47 | 1011.5 |
| 20260504021304 | 52 | 226 | 5.2 | 12.2 | 0.00 | 0.00 | 0.00 | 48 | 1011.5 |
| 20260504021205 | 52 | 226 | 5.2 | 12.2 | 0.00 | 0.00 | 0.00 | 47 | 1011.4 |
| 20260504021104 | 52 | 229 | 5.2 | 12.2 | 0.00 | 0.00 | 0.00 | 47 | 1011.5 |
| 20260504021004 | 52 | 230 | 5.2 | 12.2 | 0.00 | 0.00 | 0.00 | 47 | 1011.5 |
| 20260504020905 | 52 | 231 | 5.2 | 12.2 | 0.00 | 0.00 | 0.00 | 45 | 1011.4 |
| 20260504020805 | 52 | 231 | 5.2 | 12.2 | 0.00 | 0.00 | 0.00 | 46 | 1011.4 |
| 20260504020704 | 52 | 231 | 5.2 | 12.2 | 0.00 | 0.00 | 0.00 | 46 | 1011.4 |
| 20260504020604 | 52 | 231 | 5.2 | 12.2 | 0.00 | 0.00 | 0.00 | 46 | 1011.4 |
| 20260504020505 | 52 | 231 | 5.2 | 11.3 | 0.00 | 0.00 | 0.00 | 46 | 1011.4 |
| 20260504020404 | 52 | 230 | 5.2 | 11.3 | 0.00 | 0.00 | 0.00 | 46 | 1011.5 |
| 20260504020305 | 52 | 231 | 5.2 | 11.3 | 0.00 | 0.00 | 0.00 | 47 | 1011.5 |
| 20260504020204 | 52 | 232 | 4.3 | 11.3 | 0.00 | 0.00 | 0.00 | 48 | 1011.5 |
| 20260504020133 | 51 | 204 | 5.2 | 11.3 | 0.00 | 0.00 | 0.00 | 48 | 1011.7 |
| 20260504020104 | 52 | 231 | 4.3 | 11.3 | 0.00 | 0.00 | 0.00 | 48 | 1011.4 |
| 20260504015904 | 52 | 232 | 5.2 | 11.3 | 0.00 | 0.00 | 0.00 | 48 | 1011.4 |
| 20260504015805 | 52 | 232 | 5.2 | 11.3 | 0.00 | 0.00 | 0.00 | 47 | 1011.4 |
| 20260504015104 | 52 | 236 | 5.2 | 11.3 | 0.00 | 0.00 | 0.00 | 48 | 1011.5 |
| 20260504015005 | 52 | 236 | 5.2 | 11.3 | 0.00 | 0.00 | 0.00 | 48 | 1011.4 |
| 20260504014904 | 52 | 237 | 5.2 | 11.3 | 0.00 | 0.00 | 0.00 | 47 | 1011.4 |
| 20260504014805 | 52 | 238 | 5.2 | 11.3 | 0.00 | 0.00 | 0.00 | 48 | 1011.4 |
| 20260504014705 | 52 | 237 | 5.2 | 11.3 | 0.00 | 0.00 | 0.00 | 48 | 1011.4 |
| 20260504014604 | 52 | 236 | 5.2 | 11.3 | 0.00 | 0.00 | 0.00 | 48 | 1011.4 |
| 20260504014512 | 51 | 234 | 5.2 | 11.3 | 0.00 | 0.00 | 0.00 | 49 | 1011.6 |
| 20260504014504 | 52 | 234 | 5.2 | 11.3 | 0.00 | 0.00 | 0.00 | 49 | 1011.4 |
| 20260504014405 | 52 | 233 | 5.2 | 11.3 | 0.00 | 0.00 | 0.00 | 50 | 1011.3 |
| 20260504014304 | 52 | 233 | 5.2 | 11.3 | 0.00 | 0.00 | 0.00 | 49 | 1011.3 |
| 20260504014204 | 52 | 234 | 5.2 | 11.3 | 0.00 | 0.00 | 0.00 | 49 | 1011.3 |
| 20260504014105 | 52 | 235 | 5.2 | 11.3 | 0.00 | 0.00 | 0.00 | 49 | 1011.3 |
| 20260504014004 | 52 | 233 | 5.2 | 12.2 | 0.00 | 0.00 | 0.00 | 50 | 1011.3 |
| 20260504013904 | 52 | 232 | 5.2 | 12.2 | 0.00 | 0.00 | 0.00 | 50 | 1011.3 |
| 20260504013805 | 52 | 233 | 5.2 | 12.2 | 0.00 | 0.00 | 0.00 | 51 | 1011.3 |
| 20260504013704 | 52 | 233 | 5.2 | 12.2 | 0.00 | 0.00 | 0.00 | 50 | 1011.3 |
| 20260504013604 | 52 | 234 | 5.2 | 12.2 | 0.00 | 0.00 | 0.00 | 49 | 1011.2 |
| 20260504013504 | 52 | 235 | 5.2 | 12.2 | 0.00 | 0.00 | 0.00 | 50 | 1011.3 |
| 20260504013405 | 51 | 235 | 5.2 | 12.2 | 0.00 | 0.00 | 0.00 | 50 | 1011.2 |
| 20260504013304 | 51 | 234 | 5.2 | 12.2 | 0.00 | 0.00 | 0.00 | 50 | 1011.2 |
| 20260504013204 | 51 | 233 | 5.2 | 12.2 | 0.00 | 0.00 | 0.00 | 50 | 1011.2 |
| 20260504013140 | 51 | 219 | 5.2 | 11.3 | 0.00 | 0.00 | 0.00 | 50 | 1011.4 |
| 20260504013105 | 51 | 231 | 4.3 | 12.2 | 0.00 | 0.00 | 0.00 | 48 | 1011.1 |
| 20260504013005 | 51 | 231 | 4.3 | 9.6 | 0.00 | 0.00 | 0.00 | 49 | 1011.1 |
| 20260504012904 | 51 | 229 | 4.3 | 9.6 | 0.00 | 0.00 | 0.00 | 49 | 1011.1 |
| 20260504012804 | 51 | 226 | 4.3 | 9.6 | 0.00 | 0.00 | 0.00 | 49 | 1011.2 |
| 20260504012704 | 51 | 224 | 3.5 | 9.6 | 0.00 | 0.00 | 0.00 | 52 | 1011.2 |
| 20260504012604 | 51 | 223 | 3.5 | 9.6 | 0.00 | 0.00 | 0.00 | 52 | 1011.1 |
| 20260504012505 | 51 | 220 | 3.5 | 9.6 | 0.00 | 0.00 | 0.00 | 52 | 1011.1 |
| 20260504012404 | 51 | 217 | 3.5 | 9.6 | 0.00 | 0.00 | 0.00 | 53 | 1011.1 |
| 20260504012304 | 51 | 216 | 3.5 | 9.6 | 0.00 | 0.00 | 0.00 | 52 | 1011.1 |
| 20260504012204 | 51 | 214 | 3.5 | 9.6 | 0.00 | 0.00 | 0.00 | 52 | 1011.1 |
| 20260504012104 | 51 | 215 | 3.5 | 9.6 | 0.00 | 0.00 | 0.00 | 52 | 1011.1 |
| 20260504012005 | 51 | 216 | 3.5 | 9.6 | 0.00 | 0.00 | 0.00 | 52 | 1011.1 |
| 20260504011509 | 51 | 167 | 3.5 | 7.0 | 0.00 | 0.00 | 0.00 | 53 | 1011.3 |
| 20260504011405 | 51 | 216 | 3.5 | 7.0 | 0.00 | 0.00 | 0.00 | 53 | 1011.1 |
| 20260504011304 | 51 | 218 | 3.5 | 7.0 | 0.00 | 0.00 | 0.00 | 53 | 1011.1 |
| 20260504011204 | 51 | 219 | 3.5 | 7.0 | 0.00 | 0.00 | 0.00 | 53 | 1011.1 |
| 20260504011105 | 51 | 217 | 2.6 | 7.0 | 0.00 | 0.00 | 0.00 | 53 | 1011.1 |
| 20260504011005 | 51 | 216 | 2.6 | 7.0 | 0.00 | 0.00 | 0.00 | 53 | 1011.1 |
| 20260504010904 | 51 | 217 | 2.6 | 7.0 | 0.00 | 0.00 | 0.00 | 54 | 1011.0 |
| 20260504010804 | 51 | 217 | 2.6 | 7.0 | 0.00 | 0.00 | 0.00 | 53 | 1011.0 |
| 20260504010705 | 51 | 215 | 2.6 | 7.0 | 0.00 | 0.00 | 0.00 | 53 | 1011.0 |
| 20260504010604 | 52 | 216 | 2.6 | 7.0 | 0.00 | 0.00 | 0.00 | 54 | 1010.9 |
| 20260504010505 | 52 | 215 | 2.6 | 7.0 | 0.00 | 0.00 | 0.00 | 54 | 1010.9 |
| 20260504010404 | 52 | 214 | 2.6 | 7.0 | 0.00 | 0.00 | 0.00 | 54 | 1010.9 |
| 20260504010304 | 52 | 214 | 2.6 | 7.0 | 0.00 | 0.00 | 0.00 | 54 | 1010.9 |
| 20260504010204 | 52 | 215 | 2.6 | 7.0 | 0.00 | 0.00 | 0.00 | 54 | 1010.9 |
| 20260504010114 | 51 | 206 | 2.6 | 7.0 | 0.00 | 0.00 | 0.00 | 54 | 1011.2 |
| 20260504010104 | 52 | 216 | 2.6 | 5.2 | 0.00 | 0.00 | 0.00 | 54 | 1010.9 |
| 20260504010005 | 52 | 217 | 2.6 | 5.2 | 0.00 | 0.00 | 0.00 | 54 | 1010.9 |
| 20260504005904 | 52 | 217 | 2.6 | 5.2 | 0.00 | 0.00 | 0.00 | 54 | 1010.9 |
| 20260504005804 | 52 | 217 | 2.6 | 5.2 | 0.00 | 0.00 | 0.00 | 55 | 1010.8 |
| 20260504005704 | 52 | 218 | 2.6 | 5.2 | 0.00 | 0.00 | 0.00 | 56 | 1010.8 |
| 20260504005605 | 52 | 219 | 2.6 | 5.2 | 0.00 | 0.00 | 0.00 | 56 | 1010.8 |
| 20260504005505 | 52 | 220 | 2.6 | 4.3 | 0.00 | 0.00 | 0.00 | 56 | 1010.7 |
| 20260504005404 | 52 | 224 | 2.6 | 4.3 | 0.00 | 0.00 | 0.00 | 56 | 1010.7 |
| 20260504005305 | 52 | 227 | 2.6 | 5.2 | 0.00 | 0.00 | 0.00 | 57 | 1010.7 |
| 20260504005204 | 52 | 227 | 2.6 | 5.2 | 0.00 | 0.00 | 0.00 | 57 | 1010.7 |
| 20260504005104 | 52 | 231 | 2.6 | 6.1 | 0.00 | 0.00 | 0.00 | 57 | 1010.7 |
| 20260504005004 | 52 | 236 | 3.5 | 7.0 | 0.00 | 0.00 | 0.00 | 56 | 1010.7 |
| 20260504004905 | 52 | 243 | 3.5 | 7.8 | 0.00 | 0.00 | 0.00 | 57 | 1010.7 |
| 20260504004804 | 52 | 248 | 3.5 | 7.8 | 0.00 | 0.00 | 0.00 | 57 | 1010.7 |
| 20260504004704 | 52 | 251 | 4.3 | 8.7 | 0.00 | 0.00 | 0.00 | 57 | 1010.7 |
| 20260504004605 | 52 | 253 | 4.3 | 8.7 | 0.00 | 0.00 | 0.00 | 56 | 1010.7 |
| 20260504004511 | 51 | 233 | 1.7 | 8.7 | 0.00 | 0.00 | 0.00 | 55 | 1010.9 |
| 20260504004504 | 52 | 255 | 4.3 | 8.7 | 0.00 | 0.00 | 0.00 | 55 | 1010.7 |
| 20260504004404 | 52 | 256 | 4.3 | 8.7 | 0.00 | 0.00 | 0.00 | 53 | 1010.6 |
| 20260504004305 | 52 | 256 | 5.2 | 8.7 | 0.00 | 0.00 | 0.00 | 53 | 1010.6 |
| 20260504004204 | 52 | 257 | 4.3 | 8.7 | 0.00 | 0.00 | 0.00 | 53 | 1010.6 |
| 20260504004104 | 52 | 257 | 4.3 | 8.7 | 0.00 | 0.00 | 0.00 | 53 | 1010.6 |
| 20260504004005 | 52 | 257 | 4.3 | 8.7 | 0.00 | 0.00 | 0.00 | 53 | 1010.6 |
| 20260504003904 | 52 | 255 | 4.3 | 8.7 | 0.00 | 0.00 | 0.00 | 54 | 1010.6 |
| 20260504003804 | 52 | 253 | 4.3 | 8.7 | 0.00 | 0.00 | 0.00 | 54 | 1010.6 |
| 20260504003204 | 52 | 247 | 4.3 | 6.1 | 0.00 | 0.00 | 0.00 | 54 | 1010.6 |
| 20260504003112 | 51 | 251 | 3.5 | 6.1 | 0.00 | 0.00 | 0.00 | 54 | 1010.8 |
| 20260504003105 | 52 | 246 | 4.3 | 6.1 | 0.00 | 0.00 | 0.00 | 54 | 1010.5 |
| 20260504003004 | 52 | 246 | 3.5 | 6.1 | 0.00 | 0.00 | 0.00 | 54 | 1010.5 |
| 20260504002904 | 52 | 243 | 3.5 | 6.1 | 0.00 | 0.00 | 0.00 | 54 | 1010.5 |
| 20260504002804 | 52 | 240 | 3.5 | 6.1 | 0.00 | 0.00 | 0.00 | 54 | 1010.5 |
| 20260504002704 | 52 | 239 | 3.5 | 6.1 | 0.00 | 0.00 | 0.00 | 54 | 1010.5 |
| 20260504002604 | 52 | 237 | 3.5 | 6.1 | 0.00 | 0.00 | 0.00 | 54 | 1010.5 |
| 20260504002505 | 52 | 234 | 3.5 | 6.1 | 0.00 | 0.00 | 0.00 | 55 | 1010.4 |
| 20260504002404 | 52 | 231 | 2.6 | 6.1 | 0.00 | 0.00 | 0.00 | 55 | 1010.4 |
| 20260504002304 | 52 | 228 | 2.6 | 6.1 | 0.00 | 0.00 | 0.00 | 56 | 1010.4 |
| 20260504002204 | 52 | 225 | 2.6 | 6.1 | 0.00 | 0.00 | 0.00 | 57 | 1010.4 |
| 20260504002105 | 52 | 223 | 2.6 | 6.1 | 0.00 | 0.00 | 0.00 | 57 | 1010.4 |
| 20260504002004 | 52 | 224 | 2.6 | 6.1 | 0.00 | 0.00 | 0.00 | 57 | 1010.4 |
| 20260504001904 | 52 | 226 | 2.6 | 6.1 | 0.00 | 0.00 | 0.00 | 57 | 1010.3 |
| 20260504001804 | 52 | 227 | 1.7 | 6.1 | 0.00 | 0.00 | 0.00 | 58 | 1010.3 |
| 20260504001705 | 52 | 227 | 1.7 | 4.3 | 0.00 | 0.00 | 0.00 | 58 | 1010.3 |
| 20260504001604 | 52 | 229 | 1.7 | 4.3 | 0.00 | 0.00 | 0.00 | 58 | 1010.3 |
| 20260504001515 | 52 | 217 | 1.7 | 4.3 | 0.00 | 0.00 | 0.00 | 58 | 1010.6 |
| 20260504001504 | 52 | 231 | 1.7 | 4.3 | 0.00 | 0.00 | 0.00 | 58 | 1010.3 |
| 20260504001405 | 52 | 234 | 1.7 | 4.3 | 0.00 | 0.00 | 0.00 | 58 | 1010.3 |
| 20260504001304 | 53 | 237 | 1.7 | 4.3 | 0.00 | 0.00 | 0.00 | 58 | 1010.3 |
| 20260504001204 | 53 | 241 | 1.7 | 3.5 | 0.00 | 0.00 | 0.00 | 58 | 1010.2 |
| 20260504001104 | 53 | 245 | 1.7 | 3.5 | 0.00 | 0.00 | 0.00 | 58 | 1010.2 |
| 20260504001004 | 53 | 247 | 1.7 | 4.3 | 0.00 | 0.00 | 0.00 | 58 | 1010.2 |
| 20260504000904 | 53 | 246 | 1.7 | 6.1 | 0.00 | 0.00 | 0.00 | 57 | 1010.2 |
| 20260504000804 | 53 | 246 | 2.6 | 6.1 | 0.00 | 0.00 | 0.00 | 57 | 1010.2 |
| 20260504000704 | 53 | 246 | 2.6 | 6.1 | 0.00 | 0.00 | 0.00 | 56 | 1010.2 |
| 20260504000604 | 53 | 245 | 2.6 | 6.1 | 0.00 | 0.00 | 0.00 | 56 | 1010.2 |
| 20260504000505 | 53 | 244 | 3.5 | 6.1 | 0.00 | 0.00 | 0.00 | 56 | 1010.1 |
| 20260504000405 | 53 | 244 | 3.5 | 7.0 | 0.00 | 0.00 | 0.00 | 55 | 1010.1 |
| 20260504000304 | 53 | 245 | 4.3 | 7.0 | 0.00 | 0.00 | 0.00 | 54 | 1010.1 |
| 20260504000205 | 53 | 246 | 4.3 | 7.8 | 0.00 | 0.00 | 0.00 | 53 | 1010.2 |
| 20260504000111 | 52 | 246 | 2.6 | 7.0 | 0.00 | 0.00 | 0.00 | 53 | 1010.4 |
| 20260504000105 | 53 | 246 | 4.3 | 7.8 | 0.00 | 0.00 | 0.00 | 53 | 1010.1 |
| 20260503235404 | 53 | 250 | 4.3 | 7.8 | 0.00 | 0.00 | 0.00 | 53 | 1010.0 |
| 20260503235305 | 53 | 250 | 4.3 | 7.8 | 0.00 | 0.00 | 0.00 | 54 | 1010.0 |
| 20260503235205 | 53 | 249 | 4.3 | 7.8 | 0.00 | 0.00 | 0.00 | 54 | 1010.0 |
| 20260503235104 | 53 | 250 | 3.5 | 7.8 | 0.00 | 0.00 | 0.00 | 54 | 1010.0 |
| 20260503235004 | 53 | 250 | 4.3 | 7.8 | 0.00 | 0.00 | 0.00 | 53 | 1010.0 |
| 20260503234905 | 53 | 252 | 4.3 | 7.8 | 0.00 | 0.00 | 0.00 | 53 | 1009.9 |
| 20260503234804 | 53 | 254 | 4.3 | 7.8 | 0.00 | 0.00 | 0.00 | 54 | 1009.9 |
| 20260503234704 | 53 | 257 | 4.3 | 7.8 | 0.00 | 0.00 | 0.00 | 54 | 1009.9 |
| 20260503234605 | 53 | 259 | 4.3 | 7.0 | 0.00 | 0.00 | 0.00 | 54 | 1009.9 |
| 20260503234506 | 53 | 256 | 4.3 | 7.0 | 0.00 | 0.00 | 0.00 | 55 | 1010.1 |
| 20260503234504 | 53 | 262 | 4.3 | 7.0 | 0.00 | 0.00 | 0.00 | 55 | 1009.9 |
| 20260503234404 | 53 | 266 | 4.3 | 7.0 | 0.00 | 0.00 | 0.00 | 55 | 1009.9 |
| 20260503234305 | 53 | 269 | 4.3 | 6.1 | 0.00 | 0.00 | 0.00 | 55 | 1009.8 |
| 20260503234204 | 54 | 270 | 4.3 | 6.1 | 0.00 | 0.00 | 0.00 | 55 | 1009.8 |
| 20260503234104 | 54 | 271 | 4.3 | 6.1 | 0.00 | 0.00 | 0.00 | 55 | 1009.8 |
| 20260503234004 | 54 | 271 | 4.3 | 6.1 | 0.00 | 0.00 | 0.00 | 56 | 1009.8 |
| 20260503233905 | 54 | 272 | 4.3 | 6.1 | 0.00 | 0.00 | 0.00 | 56 | 1009.8 |
| 20260503233804 | 54 | 272 | 4.3 | 7.0 | 0.00 | 0.00 | 0.00 | 56 | 1009.7 |
| 20260503233704 | 54 | 272 | 4.3 | 7.0 | 0.00 | 0.00 | 0.00 | 56 | 1009.8 |
| 20260503233604 | 54 | 271 | 4.3 | 7.0 | 0.00 | 0.00 | 0.00 | 57 | 1009.7 |
| 20260503233504 | 54 | 270 | 4.3 | 7.0 | 0.00 | 0.00 | 0.00 | 57 | 1009.7 |
| 20260503233404 | 54 | 270 | 4.3 | 7.0 | 0.00 | 0.00 | 0.00 | 56 | 1009.8 |
| 20260503233305 | 54 | 270 | 4.3 | 7.0 | 0.00 | 0.00 | 0.00 | 56 | 1009.8 |
| 20260503233204 | 54 | 270 | 4.3 | 7.0 | 0.00 | 0.00 | 0.00 | 56 | 1009.8 |
| 20260503233111 | 53 | 275 | 3.5 | 7.0 | 0.00 | 0.00 | 0.00 | 57 | 1010.0 |
| 20260503233104 | 54 | 270 | 4.3 | 7.0 | 0.00 | 0.00 | 0.00 | 57 | 1009.8 |
| 20260503233005 | 54 | 270 | 4.3 | 7.0 | 0.00 | 0.00 | 0.00 | 58 | 1009.8 |
| 20260503232904 | 54 | 270 | 4.3 | 7.0 | 0.00 | 0.00 | 0.00 | 58 | 1009.8 |
| 20260503232804 | 54 | 270 | 4.3 | 7.0 | 0.00 | 0.00 | 0.00 | 58 | 1009.8 |
| 20260503232704 | 54 | 271 | 4.3 | 7.0 | 0.00 | 0.00 | 0.00 | 58 | 1009.8 |
| 20260503232605 | 54 | 272 | 4.3 | 7.0 | 0.00 | 0.00 | 0.00 | 58 | 1009.8 |
| 20260503232504 | 54 | 272 | 4.3 | 7.0 | 0.00 | 0.00 | 0.00 | 58 | 1009.8 |
| 20260503232404 | 54 | 271 | 4.3 | 7.0 | 0.00 | 0.00 | 0.00 | 58 | 1009.8 |
| 20260503232305 | 54 | 271 | 3.5 | 7.0 | 0.00 | 0.00 | 0.00 | 58 | 1009.7 |
| 20260503232204 | 54 | 271 | 3.5 | 7.0 | 0.00 | 0.00 | 0.00 | 59 | 1009.8 |
| 20260503232104 | 54 | 272 | 3.5 | 7.0 | 0.00 | 0.00 | 0.00 | 59 | 1009.7 |
| 20260503232005 | 54 | 272 | 3.5 | 7.0 | 0.00 | 0.00 | 0.00 | 59 | 1009.7 |
| 20260503231904 | 54 | 271 | 3.5 | 7.0 | 0.00 | 0.00 | 0.00 | 59 | 1009.8 |
| 20260503231804 | 54 | 272 | 3.5 | 7.0 | 0.00 | 0.00 | 0.00 | 59 | 1009.7 |